Wetterdaten: Sonntag, 14.04.2013
Datum Zeit Temp. Aussen +5cm Feuchte Auss Luftdruck Regen Sonnenschein Regendauer UV Solar Windben
14.04.2013 00:00 12,1 C 10,7 C 79 % 1020,0 hPa 0,0 l/m 0 min 0 min 0,0 UV-I 0 W/m 7,7 km/h (2 Bft)
14.04.2013 00:02 12,0 C 10,7 C 79 % 1020,0 hPa 0,0 l/m 0 min 0 min 0,0 UV-I 0 W/m 7,7 km/h (2 Bft)
14.04.2013 00:06 12,0 C 10,7 C 79 % 1020,0 hPa 0,0 l/m 0 min 0 min 0,0 UV-I 0 W/m 7,7 km/h (2 Bft)
14.04.2013 00:08 12,0 C 10,7 C 79 % 1020,1 hPa 0,0 l/m 0 min 0 min 0,0 UV-I 0 W/m 0,0 km/h (0 Bft)
14.04.2013 00:10 12,0 C 10,7 C 79 % 1020,0 hPa 0,0 l/m 0 min 0 min 0,0 UV-I 0 W/m 0,0 km/h (0 Bft)
14.04.2013 00:12 12,0 C 10,7 C 79 % 1020,1 hPa 0,0 l/m 0 min 0 min 0,0 UV-I 0 W/m 10,3 km/h (2 Bft)
14.04.2013 00:14 12,0 C 10,1 C 80 % 1020,2 hPa 0,0 l/m 0 min 0 min 0,0 UV-I 0 W/m 7,7 km/h (2 Bft)
14.04.2013 00:16 12,0 C 10,7 C 80 % 1020,1 hPa 0,0 l/m 0 min 0 min 0,0 UV-I 0 W/m 18,0 km/h (3 Bft)
14.04.2013 00:18 12,0 C 10,7 C 80 % 1020,1 hPa 0,0 l/m 0 min 0 min 0,0 UV-I 0 W/m 7,7 km/h (2 Bft)
14.04.2013 00:20 12,0 C 10,7 C 80 % 1020,1 hPa 0,0 l/m 0 min 0 min 0,0 UV-I 0 W/m 2,6 km/h (1 Bft)
14.04.2013 00:22 12,0 C 10,7 C 80 % 1020,1 hPa 0,0 l/m 0 min 0 min 0,0 UV-I 0 W/m 5,1 km/h (1 Bft)
14.04.2013 00:24 12,0 C 10,7 C 80 % 1020,1 hPa 0,0 l/m 0 min 0 min 0,0 UV-I 0 W/m 10,3 km/h (2 Bft)
14.04.2013 00:26 12,0 C 10,7 C 80 % 1020,1 hPa 0,0 l/m 0 min 0 min 0,0 UV-I 0 W/m 2,6 km/h (1 Bft)
14.04.2013 00:28 12,0 C 10,7 C 80 % 1020,1 hPa 0,0 l/m 0 min 0 min 0,0 UV-I 0 W/m 0,0 km/h (0 Bft)
14.04.2013 00:30 12,0 C 10,1 C 81 % 1020,1 hPa 0,0 l/m 0 min 0 min 0,0 UV-I 0 W/m 2,6 km/h (1 Bft)
14.04.2013 00:32 12,0 C 10,1 C 81 % 1020,2 hPa 0,0 l/m 0 min 0 min 0,0 UV-I 0 W/m 0,0 km/h (0 Bft)
14.04.2013 00:34 12,0 C 10,1 C 81 % 1020,2 hPa 0,0 l/m 0 min 0 min 0,0 UV-I 0 W/m 7,7 km/h (2 Bft)
14.04.2013 00:36 12,0 C 10,1 C 81 % 1020,3 hPa 0,0 l/m 0 min 0 min 0,0 UV-I 0 W/m 7,7 km/h (2 Bft)
14.04.2013 00:38 12,0 C 10,1 C 81 % 1020,3 hPa 0,0 l/m 0 min 0 min 0,0 UV-I 0 W/m 20,6 km/h (4 Bft)
14.04.2013 00:40 12,1 C 10,1 C 81 % 1020,2 hPa 0,0 l/m 0 min 0 min 0,0 UV-I 0 W/m 2,6 km/h (1 Bft)
14.04.2013 00:42 12,0 C 10,1 C 81 % 1020,2 hPa 0,0 l/m 0 min 0 min 0,0 UV-I 0 W/m 0,0 km/h (0 Bft)
14.04.2013 00:44 12,0 C 10,1 C 81 % 1020,2 hPa 0,0 l/m 0 min 0 min 0,0 UV-I 0 W/m 7,7 km/h (2 Bft)
14.04.2013 00:46 12,0 C 10,1 C 82 % 1020,2 hPa 0,0 l/m 0 min 0 min 0,0 UV-I 0 W/m 0,0 km/h (0 Bft)
14.04.2013 00:48 12,0 C 10,1 C 82 % 1020,2 hPa 0,0 l/m 0 min 0 min 0,0 UV-I 0 W/m 12,9 km/h (3 Bft)
14.04.2013 00:50 12,0 C 10,1 C 82 % 1020,3 hPa 0,0 l/m 0 min 0 min 0,0 UV-I 0 W/m 0,0 km/h (0 Bft)
14.04.2013 00:52 12,0 C 10,1 C 82 % 1020,3 hPa 0,0 l/m 0 min 0 min 0,0 UV-I 0 W/m 0,0 km/h (0 Bft)
14.04.2013 00:54 12,0 C 10,1 C 82 % 1020,3 hPa 0,0 l/m 0 min 2 min 0,0 UV-I 0 W/m 0,0 km/h (0 Bft)
14.04.2013 00:56 12,0 C 10,1 C 83 % 1020,3 hPa 0,0 l/m 0 min 2 min 0,0 UV-I 0 W/m 10,3 km/h (2 Bft)
14.04.2013 00:58 12,0 C 10,1 C 83 % 1020,3 hPa 0,0 l/m 0 min 2 min 0,0 UV-I 0 W/m 10,3 km/h (2 Bft)
14.04.2013 01:00 12,0 C 10,1 C 83 % 1020,2 hPa 0,0 l/m 0 min 0 min 0,0 UV-I 0 W/m 0,0 km/h (0 Bft)
14.04.2013 01:02 12,0 C 10,1 C 83 % 1020,2 hPa 0,0 l/m 0 min 2 min 0,0 UV-I 0 W/m 0,0 km/h (0 Bft)
14.04.2013 01:04 12,0 C 10,1 C 83 % 1020,3 hPa 0,0 l/m 0 min 0 min 0,0 UV-I 0 W/m 15,4 km/h (3 Bft)
14.04.2013 01:06 11,9 C 10,1 C 83 % 1020,3 hPa 0,0 l/m 0 min 0 min 0,0 UV-I 0 W/m 10,3 km/h (2 Bft)
14.04.2013 01:08 11,9 C 10,1 C 83 % 1020,4 hPa 0,0 l/m 0 min 0 min 0,0 UV-I 0 W/m 0,0 km/h (0 Bft)
14.04.2013 01:10 11,9 C 10,1 C 84 % 1020,4 hPa 0,0 l/m 0 min 2 min 0,0 UV-I 0 W/m 5,1 km/h (1 Bft)
14.04.2013 01:12 11,9 C 10,1 C 84 % 1020,4 hPa 0,0 l/m 0 min 2 min 0,0 UV-I 0 W/m 0,0 km/h (0 Bft)
14.04.2013 01:14 11,9 C 9,6 C 84 % 1020,3 hPa 0,0 l/m 0 min 2 min 0,0 UV-I 0 W/m 0,0 km/h (0 Bft)
14.04.2013 01:16 11,9 C 9,6 C 84 % 1020,2 hPa 0,0 l/m 0 min 2 min 0,0 UV-I 0 W/m 2,6 km/h (1 Bft)
14.04.2013 01:18 11,9 C 9,6 C 84 % 1020,3 hPa 0,0 l/m 0 min 2 min 0,0 UV-I 0 W/m 0,0 km/h (0 Bft)
14.04.2013 01:20 11,9 C 9,6 C 85 % 1020,2 hPa 0,0 l/m 0 min 0 min 0,0 UV-I 0 W/m 0,0 km/h (0 Bft)
14.04.2013 01:22 11,9 C 9,6 C 85 % 1020,2 hPa 0,0 l/m 0 min 0 min 0,0 UV-I 0 W/m 2,6 km/h (1 Bft)
14.04.2013 01:24 11,9 C 9,6 C 85 % 1020,2 hPa 0,0 l/m 0 min 0 min 0,0 UV-I 0 W/m 7,7 km/h (2 Bft)
14.04.2013 01:26 11,9 C 9,6 C 85 % 1020,1 hPa 0,0 l/m 0 min 0 min 0,0 UV-I 0 W/m 7,7 km/h (2 Bft)
14.04.2013 01:28 11,9 C 9,6 C 85 % 1020,2 hPa 0,0 l/m 0 min 0 min 0,0 UV-I 0 W/m 5,1 km/h (1 Bft)
14.04.2013 01:30 11,9 C 9,6 C 85 % 1020,1 hPa 0,0 l/m 0 min 0 min 0,0 UV-I 0 W/m 0,0 km/h (0 Bft)
14.04.2013 01:32 11,8 C 10,1 C 85 % 1020,1 hPa 0,0 l/m 0 min 0 min 0,0 UV-I 0 W/m 18,0 km/h (3 Bft)
14.04.2013 01:34 11,8 C 10,1 C 85 % 1020,1 hPa 0,0 l/m 0 min 0 min 0,0 UV-I 0 W/m 7,7 km/h (2 Bft)
14.04.2013 01:36 11,8 C 10,1 C 85 % 1020,1 hPa 0,0 l/m 0 min 0 min 0,0 UV-I 0 W/m 2,6 km/h (1 Bft)
14.04.2013 01:38 11,8 C 10,1 C 85 % 1020,0 hPa 0,0 l/m 0 min 0 min 0,0 UV-I 0 W/m 0,0 km/h (0 Bft)
14.04.2013 01:40 11,8 C 10,1 C 86 % 1020,0 hPa 0,0 l/m 0 min 0 min 0,0 UV-I 0 W/m 5,1 km/h (1 Bft)
14.04.2013 01:42 11,8 C 10,1 C 86 % 1020,0 hPa 0,0 l/m 0 min 0 min 0,0 UV-I 0 W/m 5,1 km/h (1 Bft)
14.04.2013 01:44 11,8 C 10,1 C 86 % 1020,0 hPa 0,0 l/m 0 min 0 min 0,0 UV-I 0 W/m 2,6 km/h (1 Bft)
14.04.2013 01:46 11,8 C 10,1 C 86 % 1020,0 hPa 0,0 l/m 0 min 0 min 0,0 UV-I 0 W/m 0,0 km/h (0 Bft)
14.04.2013 01:48 11,8 C 10,1 C 86 % 1019,9 hPa 0,0 l/m 0 min 0 min 0,0 UV-I 0 W/m 10,3 km/h (2 Bft)
14.04.2013 01:50 11,8 C 10,1 C 86 % 1019,9 hPa 0,0 l/m 0 min 0 min 0,0 UV-I 0 W/m 7,7 km/h (2 Bft)
14.04.2013 01:52 11,8 C 10,1 C 86 % 1020,0 hPa 0,0 l/m 0 min 0 min 0,0 UV-I 0 W/m 0,0 km/h (0 Bft)
14.04.2013 01:54 11,8 C 10,1 C 86 % 1020,0 hPa 0,0 l/m 0 min 0 min 0,0 UV-I 0 W/m 10,3 km/h (2 Bft)
14.04.2013 01:56 11,8 C 10,1 C 86 % 1020,0 hPa 0,0 l/m 0 min 0 min 0,0 UV-I 0 W/m 7,7 km/h (2 Bft)
14.04.2013 01:58 11,8 C 10,1 C 86 % 1020,0 hPa 0,0 l/m 0 min 0 min 0,0 UV-I 0 W/m 10,3 km/h (2 Bft)
14.04.2013 02:00 11,8 C 10,1 C 86 % 1020,0 hPa 0,0 l/m 0 min 0 min 0,0 UV-I 0 W/m 2,6 km/h (1 Bft)
14.04.2013 02:02 11,8 C 10,1 C 86 % 1019,9 hPa 0,0 l/m 0 min 0 min 0,0 UV-I 0 W/m 0,0 km/h (0 Bft)
14.04.2013 02:04 11,8 C 10,1 C 86 % 1019,9 hPa 0,0 l/m 0 min 0 min 0,0 UV-I 0 W/m 10,3 km/h (2 Bft)
14.04.2013 02:06 11,8 C 10,1 C 86 % 1019,9 hPa 0,0 l/m 0 min 0 min 0,0 UV-I 0 W/m 2,6 km/h (1 Bft)
14.04.2013 02:08 11,8 C 10,1 C 86 % 1019,8 hPa 0,0 l/m 0 min 0 min 0,0 UV-I 0 W/m 5,1 km/h (1 Bft)
14.04.2013 02:10 11,8 C 10,1 C 86 % 1019,8 hPa 0,0 l/m 0 min 2 min 0,0 UV-I 0 W/m 0,0 km/h (0 Bft)
14.04.2013 02:12 11,8 C 10,1 C 87 % 1019,8 hPa 0,0 l/m 0 min 0 min 0,0 UV-I 0 W/m 7,7 km/h (2 Bft)
14.04.2013 02:14 11,8 C 10,1 C 87 % 1019,8 hPa 0,0 l/m 0 min 0 min 0,0 UV-I 0 W/m 10,3 km/h (2 Bft)
14.04.2013 02:16 11,8 C 9,6 C 87 % 1019,8 hPa 0,0 l/m 0 min 0 min 0,0 UV-I 0 W/m 7,7 km/h (2 Bft)
14.04.2013 02:18 11,8 C 9,6 C 87 % 1019,8 hPa 0,0 l/m 0 min 0 min 0,0 UV-I 0 W/m 7,7 km/h (2 Bft)
14.04.2013 02:20 11,8 C 9,6 C 87 % 1019,8 hPa 0,0 l/m 0 min 0 min 0,0 UV-I 0 W/m 5,1 km/h (1 Bft)
14.04.2013 02:22 11,8 C 10,1 C 87 % 1019,8 hPa 0,0 l/m 0 min 0 min 0,0 UV-I 0 W/m 5,1 km/h (1 Bft)
14.04.2013 02:24 11,8 C 10,1 C 87 % 1019,8 hPa 0,0 l/m 0 min 0 min 0,0 UV-I 0 W/m 10,3 km/h (2 Bft)
14.04.2013 02:26 11,8 C 10,1 C 87 % 1019,8 hPa 0,0 l/m 0 min 0 min 0,0 UV-I 0 W/m 10,3 km/h (2 Bft)
14.04.2013 02:28 11,8 C 10,1 C 87 % 1019,8 hPa 0,0 l/m 0 min 0 min 0,0 UV-I 0 W/m 10,3 km/h (2 Bft)
14.04.2013 02:30 11,7 C 10,1 C 87 % 1019,7 hPa 0,0 l/m 0 min 0 min 0,0 UV-I 0 W/m 7,7 km/h (2 Bft)
14.04.2013 02:32 11,8 C 10,1 C 87 % 1019,8 hPa 0,0 l/m 0 min 0 min 0,0 UV-I 0 W/m 10,3 km/h (2 Bft)
14.04.2013 02:34 11,8 C 10,1 C 87 % 1019,8 hPa 0,0 l/m 0 min 0 min 0,0 UV-I 0 W/m 12,9 km/h (3 Bft)
14.04.2013 02:36 11,7 C 10,1 C 87 % 1019,8 hPa 0,0 l/m 0 min 0 min 0,0 UV-I 0 W/m 10,3 km/h (2 Bft)
14.04.2013 02:38 11,7 C 10,1 C 87 % 1019,8 hPa 0,0 l/m 0 min 0 min 0,0 UV-I 0 W/m 10,3 km/h (2 Bft)
14.04.2013 02:40 11,7 C 10,1 C 87 % 1019,8 hPa 0,0 l/m 0 min 0 min 0,0 UV-I 0 W/m 12,9 km/h (3 Bft)
14.04.2013 02:42 11,7 C 10,1 C 87 % 1019,8 hPa 0,0 l/m 0 min 0 min 0,0 UV-I 0 W/m 10,3 km/h (2 Bft)
14.04.2013 02:44 11,7 C 10,1 C 87 % 1019,8 hPa 0,0 l/m 0 min 0 min 0,0 UV-I 0 W/m 10,3 km/h (2 Bft)
14.04.2013 02:46 11,7 C 10,1 C 87 % 1019,8 hPa 0,0 l/m 0 min 0 min 0,0 UV-I 0 W/m 7,7 km/h (2 Bft)
14.04.2013 02:48 11,8 C 10,1 C 87 % 1019,8 hPa 0,0 l/m 0 min 0 min 0,0 UV-I 0 W/m 18,0 km/h (3 Bft)
14.04.2013 02:50 11,7 C 10,7 C 87 % 1019,8 hPa 0,0 l/m 0 min 0 min 0,0 UV-I 0 W/m 20,6 km/h (4 Bft)
14.04.2013 02:52 11,8 C 10,7 C 87 % 1019,8 hPa 0,0 l/m 0 min 0 min 0,0 UV-I 0 W/m 15,4 km/h (3 Bft)
14.04.2013 02:54 11,8 C 10,7 C 87 % 1019,8 hPa 0,0 l/m 0 min 0 min 0,0 UV-I 0 W/m 10,3 km/h (2 Bft)
14.04.2013 02:56 11,8 C 10,7 C 87 % 1019,8 hPa 0,0 l/m 0 min 0 min 0,0 UV-I 0 W/m 12,9 km/h (3 Bft)
14.04.2013 02:58 11,8 C 10,7 C 87 % 1019,8 hPa 0,0 l/m 0 min 0 min 0,0 UV-I 0 W/m 15,4 km/h (3 Bft)
14.04.2013 03:00 11,8 C 10,7 C 87 % 1019,8 hPa 0,0 l/m 0 min 0 min 0,0 UV-I 0 W/m 12,9 km/h (3 Bft)
14.04.2013 03:02 11,8 C 10,7 C 87 % 1019,8 hPa 0,0 l/m 0 min 0 min 0,0 UV-I 0 W/m 2,6 km/h (1 Bft)
14.04.2013 03:05 11,8 C 10,7 C 87 % 1019,8 hPa 0,0 l/m 0 min 0 min 0,0 UV-I 0 W/m 10,3 km/h (2 Bft)
14.04.2013 03:08 11,8 C 10,7 C 87 % 1019,7 hPa 0,0 l/m 0 min 0 min 0,0 UV-I 0 W/m 10,3 km/h (2 Bft)
14.04.2013 03:10 11,8 C 10,7 C 87 % 1019,7 hPa 0,0 l/m 0 min 0 min 0,0 UV-I 0 W/m 15,4 km/h (3 Bft)
14.04.2013 03:12 11,8 C 10,7 C 87 % 1019,6 hPa 0,0 l/m 0 min 0 min 0,0 UV-I 0 W/m 0,0 km/h (0 Bft)
14.04.2013 03:14 11,8 C 10,7 C 86 % 1019,6 hPa 0,0 l/m 0 min 0 min 0,0 UV-I 0 W/m 5,1 km/h (1 Bft)
14.04.2013 03:16 11,8 C 10,7 C 86 % 1019,6 hPa 0,0 l/m 0 min 0 min 0,0 UV-I 0 W/m 0,0 km/h (0 Bft)
14.04.2013 03:18 11,8 C 10,7 C 87 % 1019,6 hPa 0,0 l/m 0 min 0 min 0,0 UV-I 0 W/m 7,7 km/h (2 Bft)
14.04.2013 03:20 11,8 C 10,7 C 87 % 1019,6 hPa 0,0 l/m 0 min 0 min 0,0 UV-I 0 W/m 12,9 km/h (3 Bft)
14.04.2013 03:22 11,8 C 10,7 C 87 % 1019,6 hPa 0,0 l/m 0 min 0 min 0,0 UV-I 0 W/m 2,6 km/h (1 Bft)
14.04.2013 03:24 11,8 C 10,7 C 87 % 1019,6 hPa 0,0 l/m 0 min 0 min 0,0 UV-I 0 W/m 7,7 km/h (2 Bft)
14.04.2013 03:26 11,8 C 10,7 C 87 % 1019,5 hPa 0,0 l/m 0 min 0 min 0,0 UV-I 0 W/m 12,9 km/h (3 Bft)
14.04.2013 03:28 11,9 C 10,7 C 87 % 1019,6 hPa 0,0 l/m 0 min 0 min 0,0 UV-I 0 W/m 10,3 km/h (2 Bft)
14.04.2013 03:30 11,9 C 10,7 C 86 % 1019,6 hPa 0,0 l/m 0 min 0 min 0,0 UV-I 0 W/m 12,9 km/h (3 Bft)
14.04.2013 03:32 11,9 C 10,7 C 86 % 1019,5 hPa 0,0 l/m 0 min 0 min 0,0 UV-I 0 W/m 15,4 km/h (3 Bft)
14.04.2013 03:34 11,9 C 10,7 C 86 % 1019,6 hPa 0,0 l/m 0 min 0 min 0,0 UV-I 0 W/m 2,6 km/h (1 Bft)
14.04.2013 03:36 11,9 C 10,7 C 86 % 1019,6 hPa 0,0 l/m 0 min 0 min 0,0 UV-I 0 W/m 0,0 km/h (0 Bft)
14.04.2013 03:38 11,9 C 10,7 C 86 % 1019,6 hPa 0,0 l/m 0 min 0 min 0,0 UV-I 0 W/m 12,9 km/h (3 Bft)
14.04.2013 03:40 11,9 C 10,7 C 86 % 1019,6 hPa 0,0 l/m 0 min 0 min 0,0 UV-I 0 W/m 12,9 km/h (3 Bft)
14.04.2013 03:42 11,9 C 10,7 C 86 % 1019,6 hPa 0,0 l/m 0 min 0 min 0,0 UV-I 0 W/m 12,9 km/h (3 Bft)
14.04.2013 03:44 11,9 C 10,7 C 86 % 1019,6 hPa 0,0 l/m 0 min 0 min 0,0 UV-I 0 W/m 15,4 km/h (3 Bft)
14.04.2013 03:46 11,9 C 10,7 C 86 % 1019,6 hPa 0,0 l/m 0 min 0 min 0,0 UV-I 0 W/m 12,9 km/h (3 Bft)
14.04.2013 03:48 12,0 C 10,7 C 86 % 1019,6 hPa 0,0 l/m 0 min 0 min 0,0 UV-I 0 W/m 15,4 km/h (3 Bft)
14.04.2013 03:50 12,0 C 10,7 C 86 % 1019,7 hPa 0,0 l/m 0 min 0 min 0,0 UV-I 0 W/m 10,3 km/h (2 Bft)
14.04.2013 03:52 12,0 C 10,7 C 86 % 1019,7 hPa 0,0 l/m 0 min 0 min 0,0 UV-I 0 W/m 0,0 km/h (0 Bft)
14.04.2013 03:54 12,0 C 10,7 C 86 % 1019,7 hPa 0,0 l/m 0 min 0 min 0,0 UV-I 0 W/m 15,4 km/h (3 Bft)
14.04.2013 03:56 12,0 C 10,7 C 86 % 1019,7 hPa 0,0 l/m 0 min 0 min 0,0 UV-I 0 W/m 0,0 km/h (0 Bft)
14.04.2013 03:58 12,0 C 10,7 C 86 % 1019,8 hPa 0,0 l/m 0 min 0 min 0,0 UV-I 0 W/m 18,0 km/h (3 Bft)
14.04.2013 04:00 12,1 C 10,7 C 86 % 1019,8 hPa 0,0 l/m 0 min 0 min 0,0 UV-I 0 W/m 7,7 km/h (2 Bft)
14.04.2013 04:02 12,1 C 10,7 C 86 % 1019,8 hPa 0,0 l/m 0 min 0 min 0,0 UV-I 0 W/m 5,1 km/h (1 Bft)
14.04.2013 04:04 12,1 C 10,7 C 86 % 1019,8 hPa 0,0 l/m 0 min 0 min 0,0 UV-I 0 W/m 5,1 km/h (1 Bft)
14.04.2013 04:06 12,1 C 10,7 C 86 % 1019,8 hPa 0,0 l/m 0 min 0 min 0,0 UV-I 0 W/m 10,3 km/h (2 Bft)
14.04.2013 04:08 12,1 C 10,7 C 86 % 1019,7 hPa 0,0 l/m 0 min 0 min 0,0 UV-I 0 W/m 5,1 km/h (1 Bft)
14.04.2013 04:10 12,1 C 10,7 C 86 % 1019,7 hPa 0,0 l/m 0 min 0 min 0,0 UV-I 0 W/m 5,1 km/h (1 Bft)
14.04.2013 04:12 12,1 C 10,7 C 86 % 1019,7 hPa 0,0 l/m 0 min 0 min 0,0 UV-I 0 W/m 7,7 km/h (2 Bft)
14.04.2013 04:14 12,1 C 10,7 C 86 % 1019,7 hPa 0,0 l/m 0 min 0 min 0,0 UV-I 0 W/m 7,7 km/h (2 Bft)
14.04.2013 04:16 12,1 C 10,7 C 86 % 1019,7 hPa 0,0 l/m 0 min 0 min 0,0 UV-I 0 W/m 7,7 km/h (2 Bft)
14.04.2013 04:18 12,1 C 10,7 C 86 % 1019,7 hPa 0,0 l/m 0 min 0 min 0,0 UV-I 0 W/m 10,3 km/h (2 Bft)
14.04.2013 04:20 12,2 C 10,7 C 86 % 1019,7 hPa 0,0 l/m 0 min 0 min 0,0 UV-I 0 W/m 10,3 km/h (2 Bft)
14.04.2013 04:22 12,2 C 10,7 C 86 % 1019,7 hPa 0,0 l/m 0 min 0 min 0,0 UV-I 0 W/m 5,1 km/h (1 Bft)
14.04.2013 04:24 12,2 C 10,7 C 85 % 1019,7 hPa 0,0 l/m 0 min 0 min 0,0 UV-I 0 W/m 10,3 km/h (2 Bft)
14.04.2013 04:26 12,2 C 10,7 C 85 % 1019,7 hPa 0,0 l/m 0 min 0 min 0,0 UV-I 0 W/m 7,7 km/h (2 Bft)
14.04.2013 04:28 12,2 C 10,7 C 85 % 1019,7 hPa 0,0 l/m 0 min 0 min 0,0 UV-I 0 W/m 10,3 km/h (2 Bft)
14.04.2013 04:30 12,2 C 11,2 C 85 % 1019,8 hPa 0,0 l/m 0 min 0 min 0,0 UV-I 0 W/m 12,9 km/h (3 Bft)
14.04.2013 04:32 12,2 C 11,2 C 85 % 1019,8 hPa 0,0 l/m 0 min 0 min 0,0 UV-I 0 W/m 18,0 km/h (3 Bft)
14.04.2013 04:34 12,3 C 11,2 C 85 % 1019,7 hPa 0,0 l/m 0 min 0 min 0,0 UV-I 0 W/m 7,7 km/h (2 Bft)
14.04.2013 04:36 12,3 C 10,7 C 85 % 1019,7 hPa 0,0 l/m 0 min 0 min 0,0 UV-I 0 W/m 0,0 km/h (0 Bft)
14.04.2013 04:38 12,3 C 10,7 C 85 % 1019,7 hPa 0,0 l/m 0 min 0 min 0,0 UV-I 0 W/m 7,7 km/h (2 Bft)
14.04.2013 04:40 12,3 C 10,7 C 85 % 1019,7 hPa 0,0 l/m 0 min 0 min 0,0 UV-I 0 W/m 10,3 km/h (2 Bft)
14.04.2013 04:42 12,3 C 11,2 C 85 % 1019,8 hPa 0,0 l/m 0 min 0 min 0,0 UV-I 0 W/m 12,9 km/h (3 Bft)
14.04.2013 04:44 12,3 C 11,2 C 85 % 1019,7 hPa 0,0 l/m 0 min 0 min 0,0 UV-I 0 W/m 7,7 km/h (2 Bft)
14.04.2013 04:46 12,3 C 10,7 C 85 % 1019,7 hPa 0,0 l/m 0 min 0 min 0,0 UV-I 0 W/m 7,7 km/h (2 Bft)
14.04.2013 04:48 12,3 C 10,7 C 85 % 1019,8 hPa 0,0 l/m 0 min 0 min 0,0 UV-I 0 W/m 5,1 km/h (1 Bft)
14.04.2013 04:50 12,3 C 10,7 C 85 % 1019,8 hPa 0,0 l/m 0 min 0 min 0,0 UV-I 0 W/m 7,7 km/h (2 Bft)
14.04.2013 04:52 12,3 C 10,7 C 85 % 1019,8 hPa 0,0 l/m 0 min 0 min 0,0 UV-I 0 W/m 7,7 km/h (2 Bft)
14.04.2013 04:54 12,3 C 10,7 C 85 % 1019,8 hPa 0,0 l/m 0 min 0 min 0,0 UV-I 0 W/m 10,3 km/h (2 Bft)
14.04.2013 04:56 12,3 C 10,7 C 85 % 1019,8 hPa 0,0 l/m 0 min 0 min 0,0 UV-I 0 W/m 5,1 km/h (1 Bft)
14.04.2013 04:58 12,3 C 10,7 C 85 % 1019,8 hPa 0,0 l/m 0 min 0 min 0,0 UV-I 0 W/m 0,0 km/h (0 Bft)
14.04.2013 05:00 12,3 C 10,7 C 85 % 1019,9 hPa 0,0 l/m 0 min 0 min 0,0 UV-I 0 W/m 0,0 km/h (0 Bft)
14.04.2013 05:02 12,3 C 10,7 C 85 % 1019,9 hPa 0,0 l/m 0 min 0 min 0,0 UV-I 0 W/m 0,0 km/h (0 Bft)
14.04.2013 05:04 12,3 C 10,7 C 85 % 1019,9 hPa 0,0 l/m 0 min 0 min 0,0 UV-I 0 W/m 0,0 km/h (0 Bft)
14.04.2013 05:06 12,3 C 10,7 C 85 % 1019,9 hPa 0,0 l/m 0 min 0 min 0,0 UV-I 0 W/m 2,6 km/h (1 Bft)
14.04.2013 05:08 12,2 C 10,7 C 85 % 1019,9 hPa 0,0 l/m 0 min 0 min 0,0 UV-I 0 W/m 0,0 km/h (0 Bft)
14.04.2013 05:10 12,2 C 10,7 C 85 % 1019,9 hPa 0,0 l/m 0 min 0 min 0,0 UV-I 0 W/m 2,6 km/h (1 Bft)
14.04.2013 05:12 12,2 C 10,7 C 85 % 1019,9 hPa 0,0 l/m 0 min 0 min 0,0 UV-I 0 W/m 0,0 km/h (0 Bft)
14.04.2013 05:14 12,2 C 10,7 C 85 % 1019,9 hPa 0,0 l/m 0 min 0 min 0,0 UV-I 0 W/m 7,7 km/h (2 Bft)
14.04.2013 05:16 12,2 C 10,7 C 85 % 1019,9 hPa 0,0 l/m 0 min 0 min 0,0 UV-I 0 W/m 2,6 km/h (1 Bft)
14.04.2013 05:18 12,2 C 10,7 C 85 % 1019,9 hPa 0,0 l/m 0 min 0 min 0,0 UV-I 0 W/m 5,1 km/h (1 Bft)
14.04.2013 05:20 12,2 C 10,1 C 85 % 1019,9 hPa 0,0 l/m 0 min 0 min 0,0 UV-I 0 W/m 5,1 km/h (1 Bft)
14.04.2013 05:22 12,1 C 10,1 C 85 % 1019,9 hPa 0,0 l/m 0 min 0 min 0,0 UV-I 0 W/m 0,0 km/h (0 Bft)
14.04.2013 05:24 12,1 C 10,1 C 85 % 1019,9 hPa 0,0 l/m 0 min 0 min 0,0 UV-I 0 W/m 2,6 km/h (1 Bft)
14.04.2013 05:26 12,1 C 10,1 C 85 % 1019,9 hPa 0,0 l/m 0 min 0 min 0,0 UV-I 0 W/m 0,0 km/h (0 Bft)
14.04.2013 05:28 12,1 C 10,1 C 86 % 1019,9 hPa 0,0 l/m 0 min 0 min 0,0 UV-I 0 W/m 2,6 km/h (1 Bft)
14.04.2013 05:30 12,1 C 10,1 C 85 % 1019,9 hPa 0,0 l/m 0 min 0 min 0,0 UV-I 0 W/m 0,0 km/h (0 Bft)
14.04.2013 05:32 12,1 C 10,1 C 85 % 1019,9 hPa 0,0 l/m 0 min 0 min 0,0 UV-I 0 W/m 0,0 km/h (0 Bft)
14.04.2013 05:34 12,1 C 10,1 C 86 % 1019,9 hPa 0,0 l/m 0 min 0 min 0,0 UV-I 0 W/m 0,0 km/h (0 Bft)
14.04.2013 05:36 12,1 C 10,1 C 86 % 1019,9 hPa 0,0 l/m 0 min 0 min 0,0 UV-I 0 W/m 0,0 km/h (0 Bft)
14.04.2013 05:38 12,0 C 10,1 C 86 % 1019,9 hPa 0,0 l/m 0 min 0 min 0,0 UV-I 0 W/m 7,7 km/h (2 Bft)
14.04.2013 05:40 12,0 C 10,1 C 86 % 1019,9 hPa 0,0 l/m 0 min 0 min 0,0 UV-I 0 W/m 0,0 km/h (0 Bft)
14.04.2013 05:42 12,0 C 10,1 C 86 % 1019,9 hPa 0,0 l/m 0 min 0 min 0,0 UV-I 0 W/m 0,0 km/h (0 Bft)
14.04.2013 05:44 12,0 C 10,1 C 86 % 1019,9 hPa 0,0 l/m 0 min 0 min 0,0 UV-I 0 W/m 2,6 km/h (1 Bft)
14.04.2013 05:46 12,0 C 10,7 C 86 % 1019,9 hPa 0,0 l/m 0 min 0 min 0,0 UV-I 0 W/m 7,7 km/h (2 Bft)
14.04.2013 05:48 12,0 C 10,7 C 86 % 1019,9 hPa 0,0 l/m 0 min 0 min 0,0 UV-I 0 W/m 12,9 km/h (3 Bft)
14.04.2013 05:50 12,0 C 10,7 C 86 % 1019,9 hPa 0,0 l/m 0 min 0 min 0,0 UV-I 0 W/m 10,3 km/h (2 Bft)
14.04.2013 05:52 12,1 C 10,7 C 86 % 1020,0 hPa 0,0 l/m 0 min 0 min 0,0 UV-I 0 W/m 0,0 km/h (0 Bft)
14.04.2013 05:54 12,1 C 10,7 C 87 % 1020,0 hPa 0,0 l/m 0 min 0 min 0,0 UV-I 0 W/m 7,7 km/h (2 Bft)
14.04.2013 05:56 12,1 C 10,7 C 86 % 1020,0 hPa 0,0 l/m 0 min 0 min 0,0 UV-I 0 W/m 0,0 km/h (0 Bft)
14.04.2013 05:58 12,1 C 10,7 C 86 % 1020,0 hPa 0,0 l/m 0 min 0 min 0,0 UV-I 0 W/m 5,1 km/h (1 Bft)
14.04.2013 06:00 12,1 C 10,7 C 86 % 1019,9 hPa 0,0 l/m 0 min 0 min 0,0 UV-I 0 W/m 7,7 km/h (2 Bft)
14.04.2013 06:02 12,1 C 10,7 C 87 % 1020,0 hPa 0,0 l/m 0 min 0 min 0,0 UV-I 0 W/m 7,7 km/h (2 Bft)
14.04.2013 06:06 12,1 C 11,2 C 87 % 1020,0 hPa 0,0 l/m 0 min 0 min 0,0 UV-I 0 W/m 12,9 km/h (3 Bft)
14.04.2013 06:08 12,2 C 11,2 C 86 % 1020,0 hPa 0,0 l/m 0 min 0 min 0,0 UV-I 0 W/m 0,0 km/h (0 Bft)
14.04.2013 06:10 12,2 C 11,2 C 86 % 1020,0 hPa 0,0 l/m 0 min 0 min 0,0 UV-I 0 W/m 0,0 km/h (0 Bft)
14.04.2013 06:12 12,2 C 10,7 C 86 % 1020,1 hPa 0,0 l/m 0 min 0 min 0,0 UV-I 0 W/m 0,0 km/h (0 Bft)
14.04.2013 06:14 12,2 C 10,7 C 86 % 1020,0 hPa 0,0 l/m 0 min 0 min 0,0 UV-I 0 W/m 7,7 km/h (2 Bft)
14.04.2013 06:16 12,2 C 10,7 C 86 % 1019,9 hPa 0,0 l/m 0 min 0 min 0,0 UV-I 0 W/m 5,1 km/h (1 Bft)
14.04.2013 06:18 12,2 C 10,7 C 86 % 1020,0 hPa 0,0 l/m 0 min 0 min 0,0 UV-I 0 W/m 10,3 km/h (2 Bft)
14.04.2013 06:20 12,3 C 11,2 C 86 % 1020,0 hPa 0,0 l/m 0 min 0 min 0,0 UV-I 0 W/m 7,7 km/h (2 Bft)
14.04.2013 06:22 12,3 C 11,2 C 86 % 1020,1 hPa 0,0 l/m 0 min 0 min 0,0 UV-I 0 W/m 0,0 km/h (0 Bft)
14.04.2013 06:24 12,3 C 11,2 C 86 % 1020,1 hPa 0,0 l/m 0 min 0 min 0,0 UV-I 0 W/m 0,0 km/h (0 Bft)
14.04.2013 06:26 12,3 C 11,2 C 86 % 1020,1 hPa 0,0 l/m 0 min 0 min 0,0 UV-I 0 W/m 5,1 km/h (1 Bft)
14.04.2013 06:28 12,3 C 10,7 C 86 % 1020,1 hPa 0,0 l/m 0 min 0 min 0,0 UV-I 0 W/m 5,1 km/h (1 Bft)
14.04.2013 06:30 12,3 C 10,7 C 86 % 1020,2 hPa 0,0 l/m 0 min 0 min 0,0 UV-I 0 W/m 7,7 km/h (2 Bft)
14.04.2013 06:32 12,3 C 10,7 C 86 % 1020,2 hPa 0,0 l/m 0 min 0 min 0,0 UV-I 0 W/m 5,1 km/h (1 Bft)
14.04.2013 06:34 12,3 C 10,7 C 86 % 1020,3 hPa 0,0 l/m 0 min 0 min 0,0 UV-I 0 W/m 0,0 km/h (0 Bft)
14.04.2013 06:36 12,3 C 11,2 C 86 % 1020,2 hPa 0,0 l/m 0 min 0 min 0,0 UV-I 0 W/m 12,9 km/h (3 Bft)
14.04.2013 06:38 12,4 C 11,2 C 86 % 1020,3 hPa 0,0 l/m 0 min 0 min 0,0 UV-I 0 W/m 5,1 km/h (1 Bft)
14.04.2013 06:40 12,4 C 11,2 C 86 % 1020,2 hPa 0,0 l/m 0 min 0 min 0,0 UV-I 0 W/m 5,1 km/h (1 Bft)
14.04.2013 06:42 12,4 C 11,2 C 86 % 1020,2 hPa 0,0 l/m 0 min 0 min 0,0 UV-I 0 W/m 2,6 km/h (1 Bft)
14.04.2013 06:44 12,4 C 11,2 C 86 % 1020,1 hPa 0,0 l/m 0 min 0 min 0,0 UV-I 0 W/m 7,7 km/h (2 Bft)
14.04.2013 06:46 12,4 C 10,7 C 86 % 1020,1 hPa 0,0 l/m 0 min 0 min 0,0 UV-I 0 W/m 5,1 km/h (1 Bft)
14.04.2013 06:48 12,4 C 10,7 C 86 % 1020,2 hPa 0,0 l/m 0 min 0 min 0,0 UV-I 5 W/m 10,3 km/h (2 Bft)
14.04.2013 06:50 12,4 C 10,7 C 86 % 1020,2 hPa 0,0 l/m 0 min 0 min 0,0 UV-I 5 W/m 10,3 km/h (2 Bft)
14.04.2013 06:52 12,4 C 10,7 C 86 % 1020,3 hPa 0,0 l/m 0 min 0 min 0,0 UV-I 5 W/m 5,1 km/h (1 Bft)
14.04.2013 06:54 12,4 C 10,7 C 86 % 1020,2 hPa 0,0 l/m 0 min 0 min 0,0 UV-I 5 W/m 7,7 km/h (2 Bft)
14.04.2013 06:56 12,4 C 11,2 C 86 % 1020,2 hPa 0,0 l/m 0 min 0 min 0,0 UV-I 7 W/m 5,1 km/h (1 Bft)
14.04.2013 06:58 12,4 C 10,7 C 86 % 1020,2 hPa 0,0 l/m 0 min 0 min 0,0 UV-I 11 W/m 7,7 km/h (2 Bft)
14.04.2013 07:00 12,4 C 10,7 C 86 % 1020,2 hPa 0,0 l/m 0 min 0 min 0,0 UV-I 12 W/m 10,3 km/h (2 Bft)
14.04.2013 07:02 12,5 C 11,2 C 86 % 1020,2 hPa 0,0 l/m 0 min 0 min 0,0 UV-I 14 W/m 10,3 km/h (2 Bft)
14.04.2013 07:04 12,5 C 11,2 C 86 % 1020,1 hPa 0,0 l/m 0 min 0 min 0,0 UV-I 16 W/m 7,7 km/h (2 Bft)
14.04.2013 07:06 12,5 C 11,2 C 86 % 1020,3 hPa 0,0 l/m 0 min 0 min 0,0 UV-I 16 W/m 7,7 km/h (2 Bft)
14.04.2013 07:08 12,5 C 11,2 C 86 % 1020,4 hPa 0,0 l/m 0 min 0 min 0,0 UV-I 16 W/m 5,1 km/h (1 Bft)
14.04.2013 07:10 12,5 C 11,2 C 86 % 1020,4 hPa 0,0 l/m 0 min 0 min 0,0 UV-I 18 W/m 2,6 km/h (1 Bft)
14.04.2013 07:12 12,5 C 11,2 C 86 % 1020,4 hPa 0,0 l/m 0 min 0 min 0,0 UV-I 19 W/m 0,0 km/h (0 Bft)
14.04.2013 07:14 12,5 C 11,2 C 86 % 1020,4 hPa 0,0 l/m 0 min 0 min 0,0 UV-I 19 W/m 7,7 km/h (2 Bft)
14.04.2013 07:16 12,5 C 11,2 C 86 % 1020,5 hPa 0,0 l/m 0 min 0 min 0,0 UV-I 18 W/m 5,1 km/h (1 Bft)
14.04.2013 07:18 12,5 C 11,2 C 86 % 1020,6 hPa 0,0 l/m 0 min 0 min 0,0 UV-I 18 W/m 7,7 km/h (2 Bft)
14.04.2013 07:20 12,5 C 11,2 C 86 % 1020,6 hPa 0,0 l/m 0 min 0 min 0,0 UV-I 18 W/m 5,1 km/h (1 Bft)
14.04.2013 07:22 12,5 C 11,2 C 86 % 1020,6 hPa 0,0 l/m 0 min 0 min 0,0 UV-I 19 W/m 5,1 km/h (1 Bft)
14.04.2013 07:24 12,5 C 11,2 C 86 % 1020,5 hPa 0,0 l/m 0 min 0 min 0,0 UV-I 21 W/m 7,7 km/h (2 Bft)
14.04.2013 07:26 12,5 C 11,2 C 86 % 1020,6 hPa 0,0 l/m 0 min 0 min 0,0 UV-I 23 W/m 0,0 km/h (0 Bft)
14.04.2013 07:28 12,5 C 11,2 C 86 % 1020,6 hPa 0,0 l/m 0 min 0 min 0,0 UV-I 28 W/m 2,6 km/h (1 Bft)
14.04.2013 07:30 12,6 C 11,2 C 86 % 1020,6 hPa 0,0 l/m 0 min 0 min 0,0 UV-I 28 W/m 7,7 km/h (2 Bft)
14.04.2013 07:32 12,5 C 11,2 C 86 % 1020,7 hPa 0,0 l/m 0 min 0 min 0,0 UV-I 33 W/m 7,7 km/h (2 Bft)
14.04.2013 07:34 12,6 C 11,2 C 86 % 1020,6 hPa 0,0 l/m 0 min 0 min 0,0 UV-I 37 W/m 7,7 km/h (2 Bft)
14.04.2013 07:36 12,6 C 11,2 C 86 % 1020,7 hPa 0,0 l/m 0 min 0 min 0,0 UV-I 33 W/m 2,6 km/h (1 Bft)
14.04.2013 07:38 12,6 C 11,2 C 86 % 1020,7 hPa 0,0 l/m 0 min 0 min 0,0 UV-I 35 W/m 2,6 km/h (1 Bft)
14.04.2013 07:40 12,6 C 11,2 C 86 % 1020,7 hPa 0,0 l/m 0 min 0 min 0,0 UV-I 35 W/m 5,1 km/h (1 Bft)
14.04.2013 07:42 12,6 C 11,2 C 86 % 1020,7 hPa 0,0 l/m 0 min 0 min 0,0 UV-I 39 W/m 5,1 km/h (1 Bft)
14.04.2013 07:44 12,6 C 11,2 C 86 % 1020,7 hPa 0,0 l/m 0 min 0 min 0,0 UV-I 44 W/m 10,3 km/h (2 Bft)
14.04.2013 07:46 12,6 C 11,8 C 86 % 1020,7 hPa 0,0 l/m 0 min 0 min 0,0 UV-I 42 W/m 10,3 km/h (2 Bft)
14.04.2013 07:48 12,6 C 11,8 C 86 % 1020,7 hPa 0,0 l/m 0 min 0 min 0,0 UV-I 42 W/m 7,7 km/h (2 Bft)
14.04.2013 07:50 12,6 C 11,8 C 86 % 1020,6 hPa 0,0 l/m 0 min 0 min 0,0 UV-I 47 W/m 12,9 km/h (3 Bft)
14.04.2013 07:52 12,6 C 11,8 C 86 % 1020,5 hPa 0,0 l/m 0 min 0 min 0,0 UV-I 49 W/m 15,4 km/h (3 Bft)
14.04.2013 07:54 12,7 C 11,8 C 86 % 1020,6 hPa 0,0 l/m 0 min 0 min 0,0 UV-I 49 W/m 15,4 km/h (3 Bft)
14.04.2013 07:56 12,7 C 11,8 C 86 % 1020,6 hPa 0,0 l/m 0 min 0 min 0,0 UV-I 49 W/m 12,9 km/h (3 Bft)
14.04.2013 07:58 12,7 C 11,8 C 86 % 1020,5 hPa 0,0 l/m 0 min 0 min 0,0 UV-I 51 W/m 10,3 km/h (2 Bft)
14.04.2013 08:00 12,7 C 11,8 C 86 % 1020,5 hPa 0,0 l/m 0 min 0 min 0,0 UV-I 54 W/m 7,7 km/h (2 Bft)
14.04.2013 08:02 12,8 C 11,8 C 86 % 1020,5 hPa 0,0 l/m 0 min 0 min 0,0 UV-I 56 W/m 12,9 km/h (3 Bft)
14.04.2013 08:04 12,8 C 11,8 C 86 % 1020,6 hPa 0,0 l/m 0 min 0 min 0,0 UV-I 56 W/m 7,7 km/h (2 Bft)
14.04.2013 08:06 12,8 C 11,8 C 86 % 1020,7 hPa 0,0 l/m 0 min 0 min 0,0 UV-I 53 W/m 10,3 km/h (2 Bft)
14.04.2013 08:08 12,8 C 12,3 C 86 % 1020,7 hPa 0,0 l/m 0 min 0 min 0,0 UV-I 58 W/m 10,3 km/h (2 Bft)
14.04.2013 08:10 12,8 C 12,3 C 86 % 1020,6 hPa 0,0 l/m 0 min 0 min 0,0 UV-I 63 W/m 10,3 km/h (2 Bft)
14.04.2013 08:12 12,9 C 12,3 C 85 % 1020,6 hPa 0,0 l/m 0 min 0 min 0,0 UV-I 67 W/m 10,3 km/h (2 Bft)
14.04.2013 08:14 12,9 C 12,3 C 85 % 1020,6 hPa 0,0 l/m 0 min 0 min 0,0 UV-I 70 W/m 15,4 km/h (3 Bft)
14.04.2013 08:16 12,9 C 12,3 C 85 % 1020,7 hPa 0,0 l/m 0 min 0 min 0,0 UV-I 72 W/m 12,9 km/h (3 Bft)
14.04.2013 08:18 13,0 C 12,3 C 85 % 1020,7 hPa 0,0 l/m 0 min 0 min 0,0 UV-I 70 W/m 12,9 km/h (3 Bft)
14.04.2013 08:20 13,0 C 12,3 C 85 % 1020,7 hPa 0,0 l/m 0 min 0 min 0,0 UV-I 63 W/m 15,4 km/h (3 Bft)
14.04.2013 08:22 13,1 C 12,3 C 85 % 1020,7 hPa 0,0 l/m 0 min 0 min 0,0 UV-I 63 W/m 7,7 km/h (2 Bft)
14.04.2013 08:24 13,1 C 12,3 C 85 % 1020,7 hPa 0,0 l/m 0 min 0 min 0,0 UV-I 62 W/m 5,1 km/h (1 Bft)
14.04.2013 08:26 13,1 C 12,3 C 85 % 1020,7 hPa 0,0 l/m 0 min 0 min 0,0 UV-I 62 W/m 7,7 km/h (2 Bft)
14.04.2013 08:28 13,1 C 12,3 C 85 % 1020,6 hPa 0,0 l/m 0 min 0 min 0,0 UV-I 62 W/m 7,7 km/h (2 Bft)
14.04.2013 08:30 13,1 C 12,3 C 85 % 1020,6 hPa 0,0 l/m 0 min 0 min 0,0 UV-I 63 W/m 12,9 km/h (3 Bft)
14.04.2013 08:32 13,1 C 12,3 C 85 % 1020,7 hPa 0,0 l/m 0 min 0 min 0,0 UV-I 65 W/m 18,0 km/h (3 Bft)
14.04.2013 08:34 13,2 C 12,3 C 85 % 1020,8 hPa 0,0 l/m 0 min 0 min 0,0 UV-I 63 W/m 10,3 km/h (2 Bft)
14.04.2013 08:36 13,2 C 12,3 C 85 % 1020,8 hPa 0,0 l/m 0 min 0 min 0,0 UV-I 65 W/m 7,7 km/h (2 Bft)
14.04.2013 08:38 13,2 C 12,3 C 85 % 1020,8 hPa 0,0 l/m 0 min 0 min 0,0 UV-I 72 W/m 10,3 km/h (2 Bft)
14.04.2013 08:40 13,2 C 12,3 C 85 % 1020,7 hPa 0,0 l/m 0 min 0 min 0,0 UV-I 79 W/m 7,7 km/h (2 Bft)
14.04.2013 08:42 13,2 C 12,3 C 85 % 1020,7 hPa 0,0 l/m 0 min 0 min 0,0 UV-I 88 W/m 10,3 km/h (2 Bft)
14.04.2013 08:44 13,3 C 12,3 C 85 % 1020,6 hPa 0,0 l/m 0 min 0 min 0,0 UV-I 97 W/m 12,9 km/h (3 Bft)
14.04.2013 08:46 13,3 C 12,9 C 85 % 1020,7 hPa 0,0 l/m 0 min 0 min 0,0 UV-I 116 W/m 7,7 km/h (2 Bft)
14.04.2013 08:48 13,3 C 12,9 C 85 % 1020,7 hPa 0,0 l/m 0 min 0 min 0,0 UV-I 132 W/m 15,4 km/h (3 Bft)
14.04.2013 08:50 13,3 C 12,9 C 85 % 1020,8 hPa 0,0 l/m 0 min 0 min 0,0 UV-I 141 W/m 7,7 km/h (2 Bft)
14.04.2013 08:52 13,4 C 12,9 C 84 % 1020,8 hPa 0,0 l/m 0 min 0 min 0,0 UV-I 132 W/m 15,4 km/h (3 Bft)
14.04.2013 08:54 13,4 C 13,4 C 84 % 1020,8 hPa 0,0 l/m 0 min 0 min 0,0 UV-I 128 W/m 7,7 km/h (2 Bft)
14.04.2013 08:56 13,5 C 13,4 C 84 % 1020,8 hPa 0,0 l/m 0 min 0 min 0,0 UV-I 120 W/m 12,9 km/h (3 Bft)
14.04.2013 08:58 13,6 C 13,4 C 84 % 1020,7 hPa 0,0 l/m 0 min 0 min 0,0 UV-I 105 W/m 7,7 km/h (2 Bft)
14.04.2013 09:00 13,6 C 13,4 C 84 % 1020,8 hPa 0,0 l/m 0 min 0 min 0,0 UV-I 98 W/m 0,0 km/h (0 Bft)
14.04.2013 09:02 13,7 C 13,4 C 84 % 1020,8 hPa 0,0 l/m 0 min 0 min 0,0 UV-I 98 W/m 12,9 km/h (3 Bft)
14.04.2013 09:06 13,7 C 13,4 C 83 % 1020,7 hPa 0,0 l/m 0 min 0 min 0,0 UV-I 104 W/m 12,9 km/h (3 Bft)
14.04.2013 09:08 13,8 C 13,4 C 84 % 1020,8 hPa 0,0 l/m 0 min 0 min 0,0 UV-I 107 W/m 7,7 km/h (2 Bft)
14.04.2013 09:10 13,8 C 13,4 C 83 % 1020,8 hPa 0,0 l/m 0 min 0 min 0,0 UV-I 98 W/m 10,3 km/h (2 Bft)
14.04.2013 09:12 13,8 C 13,4 C 83 % 1020,9 hPa 0,0 l/m 0 min 0 min 0,0 UV-I 83 W/m 10,3 km/h (2 Bft)
14.04.2013 09:14 13,8 C 13,4 C 83 % 1020,9 hPa 0,0 l/m 0 min 0 min 0,0 UV-I 79 W/m 5,1 km/h (1 Bft)
14.04.2013 09:16 13,9 C 13,4 C 83 % 1020,9 hPa 0,0 l/m 0 min 0 min 0,0 UV-I 93 W/m 2,6 km/h (1 Bft)
14.04.2013 09:18 13,9 C 13,4 C 83 % 1020,9 hPa 0,0 l/m 0 min 0 min 0,0 UV-I 102 W/m 2,6 km/h (1 Bft)
14.04.2013 09:20 14,0 C 13,4 C 83 % 1020,9 hPa 0,0 l/m 0 min 0 min 0,0 UV-I 98 W/m 5,1 km/h (1 Bft)
14.04.2013 09:22 14,0 C 13,4 C 83 % 1020,9 hPa 0,0 l/m 0 min 0 min 0,0 UV-I 98 W/m 12,9 km/h (3 Bft)
14.04.2013 09:24 14,1 C 13,4 C 82 % 1021,0 hPa 0,0 l/m 0 min 0 min 0,0 UV-I 97 W/m 7,7 km/h (2 Bft)
14.04.2013 09:26 14,1 C 13,4 C 82 % 1020,9 hPa 0,0 l/m 0 min 0 min 0,0 UV-I 88 W/m 5,1 km/h (1 Bft)
14.04.2013 09:28 14,1 C 13,4 C 82 % 1020,9 hPa 0,0 l/m 0 min 0 min 0,0 UV-I 77 W/m 10,3 km/h (2 Bft)
14.04.2013 09:30 14,2 C 13,4 C 82 % 1020,9 hPa 0,0 l/m 0 min 0 min 0,0 UV-I 72 W/m 10,3 km/h (2 Bft)
14.04.2013 09:32 14,2 C 13,4 C 82 % 1020,9 hPa 0,0 l/m 0 min 0 min 0,0 UV-I 84 W/m 10,3 km/h (2 Bft)
14.04.2013 09:34 14,2 C 13,4 C 82 % 1021,0 hPa 0,0 l/m 0 min 0 min 0,0 UV-I 102 W/m 7,7 km/h (2 Bft)
14.04.2013 09:36 14,2 C 14,0 C 81 % 1020,9 hPa 0,0 l/m 0 min 0 min 0,0 UV-I 134 W/m 10,3 km/h (2 Bft)
14.04.2013 09:38 14,3 C 14,0 C 81 % 1020,9 hPa 0,0 l/m 0 min 0 min 0,0 UV-I 121 W/m 7,7 km/h (2 Bft)
14.04.2013 09:40 14,3 C 14,0 C 81 % 1020,9 hPa 0,0 l/m 0 min 0 min 0,0 UV-I 114 W/m 15,4 km/h (3 Bft)
14.04.2013 09:42 14,3 C 14,0 C 81 % 1021,0 hPa 0,0 l/m 0 min 0 min 0,0 UV-I 111 W/m 5,1 km/h (1 Bft)
14.04.2013 09:44 14,4 C 14,0 C 81 % 1021,0 hPa 0,0 l/m 0 min 0 min 0,0 UV-I 100 W/m 10,3 km/h (2 Bft)
14.04.2013 09:46 14,4 C 14,0 C 80 % 1021,0 hPa 0,0 l/m 0 min 0 min 0,0 UV-I 93 W/m 12,9 km/h (3 Bft)
14.04.2013 09:48 14,4 C 14,0 C 80 % 1021,0 hPa 0,0 l/m 0 min 0 min 0,0 UV-I 107 W/m 15,4 km/h (3 Bft)
14.04.2013 09:50 14,5 C 14,0 C 80 % 1021,0 hPa 0,0 l/m 0 min 0 min 0,0 UV-I 125 W/m 7,7 km/h (2 Bft)
14.04.2013 09:52 14,5 C 14,0 C 80 % 1021,0 hPa 0,0 l/m 0 min 0 min 0,0 UV-I 132 W/m 7,7 km/h (2 Bft)
14.04.2013 09:54 14,6 C 14,0 C 80 % 1021,0 hPa 0,0 l/m 0 min 0 min 0,0 UV-I 121 W/m 12,9 km/h (3 Bft)
14.04.2013 09:56 14,6 C 14,0 C 80 % 1021,0 hPa 0,0 l/m 0 min 0 min 0,0 UV-I 111 W/m 20,6 km/h (4 Bft)
14.04.2013 09:58 14,7 C 14,0 C 79 % 1021,0 hPa 0,0 l/m 0 min 0 min 0,0 UV-I 107 W/m 5,1 km/h (1 Bft)
14.04.2013 10:00 14,7 C 14,0 C 79 % 1021,0 hPa 0,0 l/m 0 min 0 min 0,0 UV-I 107 W/m 7,7 km/h (2 Bft)
14.04.2013 10:02 14,7 C 14,0 C 79 % 1021,0 hPa 0,0 l/m 0 min 0 min 0,0 UV-I 98 W/m 12,9 km/h (3 Bft)
14.04.2013 10:04 14,7 C 14,0 C 79 % 1021,1 hPa 0,0 l/m 0 min 0 min 0,0 UV-I 86 W/m 20,6 km/h (4 Bft)
14.04.2013 10:06 14,8 C 14,0 C 79 % 1021,0 hPa 0,0 l/m 0 min 0 min 0,0 UV-I 86 W/m 5,1 km/h (1 Bft)
14.04.2013 10:08 14,8 C 14,0 C 79 % 1021,0 hPa 0,0 l/m 0 min 0 min 0,0 UV-I 93 W/m 15,4 km/h (3 Bft)
14.04.2013 10:10 14,8 C 14,0 C 79 % 1021,1 hPa 0,0 l/m 0 min 0 min 0,0 UV-I 118 W/m 7,7 km/h (2 Bft)
14.04.2013 10:12 14,8 C 14,0 C 79 % 1021,1 hPa 0,0 l/m 0 min 0 min 0,0 UV-I 113 W/m 7,7 km/h (2 Bft)
14.04.2013 10:14 14,9 C 14,0 C 79 % 1021,1 hPa 0,0 l/m 0 min 0 min 0,0 UV-I 113 W/m 7,7 km/h (2 Bft)
14.04.2013 10:16 14,9 C 14,6 C 79 % 1021,1 hPa 0,0 l/m 0 min 0 min 0,0 UV-I 121 W/m 2,6 km/h (1 Bft)
14.04.2013 10:18 15,0 C 14,6 C 79 % 1021,1 hPa 0,0 l/m 0 min 0 min 0,0 UV-I 146 W/m 2,6 km/h (1 Bft)
14.04.2013 10:20 15,0 C 14,6 C 79 % 1021,1 hPa 0,0 l/m 0 min 0 min 0,0 UV-I 165 W/m 5,1 km/h (1 Bft)
14.04.2013 10:22 15,0 C 14,6 C 79 % 1021,1 hPa 0,0 l/m 0 min 0 min 0,0 UV-I 163 W/m 12,9 km/h (3 Bft)
14.04.2013 10:24 15,0 C 15,1 C 79 % 1021,2 hPa 0,0 l/m 0 min 0 min 0,0 UV-I 146 W/m 12,9 km/h (3 Bft)
14.04.2013 10:26 15,0 C 15,1 C 79 % 1021,2 hPa 0,0 l/m 0 min 0 min 0,0 UV-I 128 W/m 10,3 km/h (2 Bft)
14.04.2013 10:28 15,0 C 14,6 C 78 % 1021,2 hPa 0,0 l/m 0 min 0 min 0,0 UV-I 128 W/m 12,9 km/h (3 Bft)
14.04.2013 10:30 15,0 C 14,6 C 78 % 1021,2 hPa 0,0 l/m 0 min 0 min 0,0 UV-I 127 W/m 7,7 km/h (2 Bft)
14.04.2013 10:32 15,1 C 14,6 C 78 % 1021,2 hPa 0,0 l/m 0 min 0 min 0,0 UV-I 125 W/m 2,6 km/h (1 Bft)
14.04.2013 10:34 15,1 C 14,6 C 78 % 1021,2 hPa 0,0 l/m 0 min 0 min 0,0 UV-I 128 W/m 5,1 km/h (1 Bft)
14.04.2013 10:36 15,2 C 15,1 C 78 % 1021,3 hPa 0,0 l/m 0 min 0 min 0,0 UV-I 137 W/m 5,1 km/h (1 Bft)
14.04.2013 10:38 15,2 C 15,1 C 78 % 1021,3 hPa 0,0 l/m 0 min 0 min 0,0 UV-I 151 W/m 10,3 km/h (2 Bft)
14.04.2013 10:40 15,2 C 15,1 C 77 % 1021,3 hPa 0,0 l/m 0 min 0 min 0,0 UV-I 146 W/m 7,7 km/h (2 Bft)
14.04.2013 10:42 15,3 C 14,6 C 77 % 1021,3 hPa 0,0 l/m 0 min 0 min 0,0 UV-I 100 W/m 18,0 km/h (3 Bft)
14.04.2013 10:44 15,3 C 14,6 C 77 % 1021,4 hPa 0,0 l/m 0 min 0 min 0,0 UV-I 91 W/m 18,0 km/h (3 Bft)
14.04.2013 10:46 15,3 C 14,6 C 77 % 1021,4 hPa 0,0 l/m 0 min 0 min 0,0 UV-I 95 W/m 10,3 km/h (2 Bft)
14.04.2013 10:48 15,3 C 14,6 C 77 % 1021,4 hPa 0,0 l/m 0 min 0 min 0,0 UV-I 125 W/m 7,7 km/h (2 Bft)
14.04.2013 10:50 15,3 C 14,6 C 77 % 1021,4 hPa 0,0 l/m 0 min 0 min 0,0 UV-I 149 W/m 12,9 km/h (3 Bft)
14.04.2013 10:52 15,3 C 15,1 C 77 % 1021,4 hPa 0,0 l/m 0 min 0 min 0,0 UV-I 178 W/m 10,3 km/h (2 Bft)
14.04.2013 10:54 15,3 C 15,1 C 77 % 1021,4 hPa 0,0 l/m 0 min 0 min 0,0 UV-I 169 W/m 23,2 km/h (4 Bft)
14.04.2013 10:56 15,4 C 15,1 C 77 % 1021,4 hPa 0,0 l/m 0 min 0 min 0,0 UV-I 148 W/m 5,1 km/h (1 Bft)
14.04.2013 10:58 15,4 C 15,1 C 77 % 1021,4 hPa 0,0 l/m 0 min 0 min 0,0 UV-I 116 W/m 12,9 km/h (3 Bft)
14.04.2013 11:00 15,4 C 15,1 C 77 % 1021,4 hPa 0,0 l/m 0 min 0 min 0,0 UV-I 102 W/m 7,7 km/h (2 Bft)
14.04.2013 11:02 15,4 C 15,1 C 77 % 1021,4 hPa 0,0 l/m 0 min 0 min 0,0 UV-I 107 W/m 7,7 km/h (2 Bft)
14.04.2013 11:04 15,5 C 15,1 C 77 % 1021,5 hPa 0,0 l/m 0 min 0 min 0,0 UV-I 118 W/m 10,3 km/h (2 Bft)
14.04.2013 11:06 15,5 C 15,1 C 77 % 1021,5 hPa 0,0 l/m 0 min 0 min 0,0 UV-I 123 W/m 10,3 km/h (2 Bft)
14.04.2013 11:08 15,6 C 15,1 C 76 % 1021,5 hPa 0,0 l/m 0 min 0 min 0,0 UV-I 132 W/m 10,3 km/h (2 Bft)
14.04.2013 11:10 15,6 C 15,1 C 77 % 1021,5 hPa 0,0 l/m 0 min 0 min 0,0 UV-I 139 W/m 10,3 km/h (2 Bft)
14.04.2013 11:12 15,6 C 15,1 C 76 % 1021,5 hPa 0,0 l/m 0 min 0 min 0,0 UV-I 148 W/m 10,3 km/h (2 Bft)
14.04.2013 11:14 15,6 C 15,1 C 76 % 1021,6 hPa 0,0 l/m 0 min 0 min 0,0 UV-I 156 W/m 10,3 km/h (2 Bft)
14.04.2013 11:16 15,6 C 15,1 C 76 % 1021,6 hPa 0,0 l/m 0 min 0 min 0,0 UV-I 155 W/m 18,0 km/h (3 Bft)
14.04.2013 11:18 15,7 C 15,7 C 76 % 1021,5 hPa 0,0 l/m 0 min 0 min 0,0 UV-I 144 W/m 10,3 km/h (2 Bft)
14.04.2013 11:20 15,7 C 15,1 C 76 % 1021,5 hPa 0,0 l/m 0 min 0 min 0,0 UV-I 130 W/m 7,7 km/h (2 Bft)
14.04.2013 11:22 15,7 C 15,1 C 76 % 1021,6 hPa 0,0 l/m 0 min 0 min 0,0 UV-I 123 W/m 5,1 km/h (1 Bft)
14.04.2013 11:24 15,7 C 15,1 C 76 % 1021,6 hPa 0,0 l/m 0 min 0 min 0,0 UV-I 130 W/m 7,7 km/h (2 Bft)
14.04.2013 11:26 15,7 C 15,1 C 76 % 1021,6 hPa 0,0 l/m 0 min 0 min 0,0 UV-I 141 W/m 18,0 km/h (3 Bft)
14.04.2013 11:28 15,8 C 15,7 C 76 % 1021,6 hPa 0,0 l/m 0 min 0 min 0,0 UV-I 172 W/m 12,9 km/h (3 Bft)
14.04.2013 11:30 15,8 C 15,7 C 76 % 1021,5 hPa 0,0 l/m 0 min 0 min 0,0 UV-I 192 W/m 5,1 km/h (1 Bft)
14.04.2013 11:32 15,8 C 15,7 C 76 % 1021,6 hPa 0,0 l/m 0 min 0 min 0,5 UV-I 204 W/m 10,3 km/h (2 Bft)
14.04.2013 11:34 15,8 C 15,7 C 75 % 1021,5 hPa 0,0 l/m 0 min 0 min 0,5 UV-I 216 W/m 10,3 km/h (2 Bft)
14.04.2013 11:36 15,9 C 16,2 C 75 % 1021,6 hPa 0,0 l/m 0 min 0 min 0,5 UV-I 204 W/m 10,3 km/h (2 Bft)
14.04.2013 11:38 15,9 C 16,2 C 76 % 1021,7 hPa 0,0 l/m 0 min 0 min 0,0 UV-I 169 W/m 5,1 km/h (1 Bft)
14.04.2013 11:40 16,0 C 16,2 C 75 % 1021,7 hPa 0,0 l/m 0 min 0 min 0,0 UV-I 142 W/m 12,9 km/h (3 Bft)
14.04.2013 11:42 16,1 C 15,7 C 75 % 1021,7 hPa 0,0 l/m 0 min 0 min 0,0 UV-I 137 W/m 10,3 km/h (2 Bft)
14.04.2013 11:44 16,1 C 15,7 C 75 % 1021,7 hPa 0,0 l/m 0 min 0 min 0,0 UV-I 141 W/m 2,6 km/h (1 Bft)
14.04.2013 11:46 16,1 C 15,7 C 75 % 1021,7 hPa 0,0 l/m 0 min 0 min 0,0 UV-I 162 W/m 0,0 km/h (0 Bft)
14.04.2013 11:48 16,2 C 15,7 C 75 % 1021,7 hPa 0,0 l/m 0 min 0 min 0,0 UV-I 179 W/m 12,9 km/h (3 Bft)
14.04.2013 11:50 16,2 C 16,2 C 75 % 1021,7 hPa 0,0 l/m 0 min 0 min 0,0 UV-I 183 W/m 7,7 km/h (2 Bft)
14.04.2013 11:52 16,2 C 16,2 C 75 % 1021,7 hPa 0,0 l/m 0 min 0 min 0,5 UV-I 200 W/m 10,3 km/h (2 Bft)
14.04.2013 11:54 16,3 C 16,2 C 75 % 1021,6 hPa 0,0 l/m 0 min 0 min 0,7 UV-I 236 W/m 10,3 km/h (2 Bft)
14.04.2013 11:56 16,3 C 16,8 C 74 % 1021,6 hPa 0,0 l/m 0 min 0 min 0,9 UV-I 262 W/m 2,6 km/h (1 Bft)
14.04.2013 11:58 16,4 C 16,8 C 75 % 1021,5 hPa 0,0 l/m 0 min 0 min 0,9 UV-I 264 W/m 2,6 km/h (1 Bft)
14.04.2013 12:00 16,4 C 17,3 C 74 % 1021,5 hPa 0,0 l/m 0 min 0 min 0,9 UV-I 257 W/m 7,7 km/h (2 Bft)
14.04.2013 12:02 16,5 C 17,3 C 74 % 1021,5 hPa 0,0 l/m 0 min 0 min 0,8 UV-I 248 W/m 7,7 km/h (2 Bft)
14.04.2013 12:06 16,6 C 16,8 C 72 % 1021,6 hPa 0,0 l/m 0 min 0 min 0,6 UV-I 204 W/m 12,9 km/h (3 Bft)
14.04.2013 12:08 16,7 C 16,8 C 73 % 1021,6 hPa 0,0 l/m 0 min 0 min 0,5 UV-I 188 W/m 12,9 km/h (3 Bft)
14.04.2013 12:10 16,7 C 16,8 C 72 % 1021,6 hPa 0,0 l/m 0 min 0 min 0,5 UV-I 190 W/m 10,3 km/h (2 Bft)
14.04.2013 12:12 16,7 C 16,8 C 73 % 1021,6 hPa 0,0 l/m 0 min 0 min 0,5 UV-I 188 W/m 5,1 km/h (1 Bft)
14.04.2013 12:14 16,7 C 16,8 C 72 % 1021,6 hPa 0,0 l/m 0 min 0 min 0,5 UV-I 186 W/m 7,7 km/h (2 Bft)
14.04.2013 12:16 16,8 C 16,8 C 73 % 1021,7 hPa 0,0 l/m 0 min 0 min 0,5 UV-I 183 W/m 10,3 km/h (2 Bft)
14.04.2013 12:18 16,8 C 16,8 C 72 % 1021,7 hPa 0,0 l/m 0 min 0 min 0,6 UV-I 192 W/m 10,3 km/h (2 Bft)
14.04.2013 12:20 16,8 C 16,8 C 72 % 1021,7 hPa 0,0 l/m 0 min 0 min 0,8 UV-I 251 W/m 7,7 km/h (2 Bft)
14.04.2013 12:22 16,8 C 17,3 C 72 % 1021,7 hPa 0,0 l/m 0 min 0 min 1,2 UV-I 311 W/m 12,9 km/h (3 Bft)
14.04.2013 12:24 16,9 C 17,3 C 72 % 1021,7 hPa 0,0 l/m 0 min 0 min 1,1 UV-I 288 W/m 5,1 km/h (1 Bft)
14.04.2013 12:26 16,9 C 17,3 C 72 % 1021,7 hPa 0,0 l/m 0 min 0 min 1,1 UV-I 278 W/m 20,6 km/h (4 Bft)
14.04.2013 12:28 17,0 C 17,3 C 71 % 1021,6 hPa 0,0 l/m 0 min 0 min 1,4 UV-I 299 W/m 15,4 km/h (3 Bft)
14.04.2013 12:30 17,1 C 17,9 C 72 % 1021,5 hPa 0,0 l/m 0 min 0 min 1,8 UV-I 360 W/m 7,7 km/h (2 Bft)
14.04.2013 12:32 17,2 C 18,4 C 71 % 1021,5 hPa 0,0 l/m 0 min 0 min 2,0 UV-I 392 W/m 15,4 km/h (3 Bft)
14.04.2013 12:34 17,3 C 19,0 C 71 % 1021,5 hPa 0,0 l/m 0 min 0 min 1,8 UV-I 369 W/m 12,9 km/h (3 Bft)
14.04.2013 12:36 17,3 C 19,0 C 71 % 1021,6 hPa 0,0 l/m 0 min 0 min 1,4 UV-I 318 W/m 20,6 km/h (4 Bft)
14.04.2013 12:38 17,4 C 19,0 C 70 % 1021,6 hPa 0,0 l/m 0 min 0 min 1,1 UV-I 255 W/m 7,7 km/h (2 Bft)
14.04.2013 12:40 17,5 C 17,9 C 69 % 1021,6 hPa 0,0 l/m 0 min 0 min 0,9 UV-I 239 W/m 12,9 km/h (3 Bft)
14.04.2013 12:42 17,5 C 17,9 C 69 % 1021,6 hPa 0,0 l/m 0 min 0 min 0,7 UV-I 200 W/m 18,0 km/h (3 Bft)
14.04.2013 12:44 17,6 C 17,9 C 69 % 1021,6 hPa 0,0 l/m 0 min 0 min 0,8 UV-I 221 W/m 10,3 km/h (2 Bft)
14.04.2013 12:46 17,6 C 17,3 C 69 % 1021,6 hPa 0,0 l/m 0 min 0 min 1,0 UV-I 244 W/m 10,3 km/h (2 Bft)
14.04.2013 12:48 17,6 C 17,3 C 68 % 1021,6 hPa 0,0 l/m 0 min 0 min 1,2 UV-I 288 W/m 10,3 km/h (2 Bft)
14.04.2013 12:50 17,6 C 17,9 C 69 % 1021,6 hPa 0,0 l/m 0 min 0 min 1,2 UV-I 248 W/m 12,9 km/h (3 Bft)
14.04.2013 12:52 17,6 C 17,9 C 70 % 1021,5 hPa 0,0 l/m 0 min 0 min 1,0 UV-I 239 W/m 2,6 km/h (1 Bft)
14.04.2013 12:54 17,6 C 17,9 C 70 % 1021,6 hPa 0,0 l/m 0 min 0 min 1,0 UV-I 246 W/m 7,7 km/h (2 Bft)
14.04.2013 12:56 17,7 C 17,9 C 70 % 1021,6 hPa 0,0 l/m 0 min 0 min 0,9 UV-I 232 W/m 18,0 km/h (3 Bft)
14.04.2013 12:58 17,7 C 17,9 C 69 % 1021,6 hPa 0,0 l/m 0 min 0 min 0,9 UV-I 236 W/m 20,6 km/h (4 Bft)
14.04.2013 13:00 17,7 C 17,9 C 69 % 1021,6 hPa 0,0 l/m 0 min 0 min 0,9 UV-I 234 W/m 20,6 km/h (4 Bft)
14.04.2013 13:02 17,7 C 17,9 C 69 % 1021,6 hPa 0,0 l/m 0 min 0 min 0,9 UV-I 229 W/m 12,9 km/h (3 Bft)
14.04.2013 13:04 17,8 C 17,9 C 68 % 1021,6 hPa 0,0 l/m 0 min 0 min 0,9 UV-I 225 W/m 18,0 km/h (3 Bft)
14.04.2013 13:06 17,8 C 17,9 C 68 % 1021,6 hPa 0,0 l/m 0 min 0 min 0,8 UV-I 221 W/m 23,2 km/h (4 Bft)
14.04.2013 13:08 17,8 C 17,9 C 68 % 1021,6 hPa 0,0 l/m 0 min 0 min 0,9 UV-I 227 W/m 23,2 km/h (4 Bft)
14.04.2013 13:10 17,8 C 17,9 C 68 % 1021,6 hPa 0,0 l/m 0 min 0 min 0,9 UV-I 227 W/m 12,9 km/h (3 Bft)
14.04.2013 13:12 17,8 C 17,9 C 68 % 1021,6 hPa 0,0 l/m 0 min 0 min 0,8 UV-I 220 W/m 15,4 km/h (3 Bft)
14.04.2013 13:14 17,8 C 17,9 C 68 % 1021,6 hPa 0,0 l/m 0 min 0 min 0,8 UV-I 213 W/m 15,4 km/h (3 Bft)
14.04.2013 13:16 17,8 C 17,9 C 67 % 1021,7 hPa 0,0 l/m 0 min 0 min 0,9 UV-I 230 W/m 18,0 km/h (3 Bft)
14.04.2013 13:18 17,8 C 17,9 C 67 % 1021,6 hPa 0,0 l/m 0 min 0 min 1,0 UV-I 250 W/m 12,9 km/h (3 Bft)
14.04.2013 13:20 17,8 C 17,9 C 67 % 1021,6 hPa 0,0 l/m 0 min 0 min 1,2 UV-I 274 W/m 7,7 km/h (2 Bft)
14.04.2013 13:22 17,8 C 18,4 C 67 % 1021,6 hPa 0,0 l/m 0 min 0 min 1,4 UV-I 315 W/m 25,7 km/h (4 Bft)
14.04.2013 13:24 17,8 C 18,4 C 68 % 1021,6 hPa 0,0 l/m 0 min 0 min 1,7 UV-I 352 W/m 15,4 km/h (3 Bft)
14.04.2013 13:26 17,9 C 19,0 C 68 % 1021,6 hPa 0,0 l/m 0 min 0 min 1,9 UV-I 380 W/m 15,4 km/h (3 Bft)
14.04.2013 13:28 18,0 C 19,6 C 68 % 1021,6 hPa 0,0 l/m 0 min 0 min 2,1 UV-I 397 W/m 10,3 km/h (2 Bft)
14.04.2013 13:30 18,1 C 20,1 C 68 % 1021,6 hPa 0,0 l/m 2 min 0 min 2,6 UV-I 504 W/m 12,9 km/h (3 Bft)
14.04.2013 13:32 18,2 C 19,6 C 67 % 1021,7 hPa 0,0 l/m 0 min 0 min 1,9 UV-I 322 W/m 15,4 km/h (3 Bft)
14.04.2013 13:34 18,3 C 19,6 C 67 % 1021,6 hPa 0,0 l/m 0 min 0 min 2,0 UV-I 345 W/m 10,3 km/h (2 Bft)
14.04.2013 13:36 18,4 C 19,6 C 66 % 1021,5 hPa 0,0 l/m 0 min 0 min 2,0 UV-I 322 W/m 20,6 km/h (4 Bft)
14.04.2013 13:38 18,4 C 19,0 C 66 % 1021,6 hPa 0,0 l/m 0 min 0 min 1,8 UV-I 306 W/m 28,3 km/h (4 Bft)
14.04.2013 13:40 18,5 C 19,0 C 66 % 1021,6 hPa 0,0 l/m 0 min 0 min 1,6 UV-I 274 W/m 12,9 km/h (3 Bft)
14.04.2013 13:42 18,5 C 19,0 C 66 % 1021,6 hPa 0,0 l/m 0 min 0 min 1,6 UV-I 301 W/m 18,0 km/h (3 Bft)
14.04.2013 13:44 18,6 C 19,0 C 66 % 1021,5 hPa 0,0 l/m 0 min 0 min 1,8 UV-I 348 W/m 15,4 km/h (3 Bft)
14.04.2013 13:46 18,6 C 19,0 C 65 % 1021,5 hPa 0,0 l/m 0 min 0 min 1,8 UV-I 330 W/m 12,9 km/h (3 Bft)
14.04.2013 13:48 18,7 C 19,0 C 65 % 1021,5 hPa 0,0 l/m 0 min 0 min 1,7 UV-I 318 W/m 12,9 km/h (3 Bft)
14.04.2013 13:50 18,7 C 19,0 C 65 % 1021,6 hPa 0,0 l/m 0 min 0 min 1,8 UV-I 325 W/m 20,6 km/h (4 Bft)
14.04.2013 13:52 18,7 C 19,0 C 65 % 1021,5 hPa 0,0 l/m 0 min 0 min 1,8 UV-I 392 W/m 7,7 km/h (2 Bft)
14.04.2013 13:54 18,8 C 19,6 C 66 % 1021,6 hPa 0,0 l/m 0 min 0 min 1,7 UV-I 322 W/m 15,4 km/h (3 Bft)
14.04.2013 13:56 18,8 C 19,0 C 65 % 1021,5 hPa 0,0 l/m 0 min 0 min 1,9 UV-I 360 W/m 15,4 km/h (3 Bft)
14.04.2013 13:58 18,8 C 19,0 C 64 % 1021,5 hPa 0,0 l/m 2 min 0 min 2,4 UV-I 478 W/m 12,9 km/h (3 Bft)
14.04.2013 14:00 18,9 C 19,6 C 64 % 1021,5 hPa 0,0 l/m 2 min 0 min 2,3 UV-I 503 W/m 15,4 km/h (3 Bft)
14.04.2013 14:02 18,9 C 19,6 C 63 % 1021,5 hPa 0,0 l/m 2 min 0 min 2,7 UV-I 543 W/m 7,7 km/h (2 Bft)
14.04.2013 14:04 19,1 C 19,6 C 65 % 1021,5 hPa 0,0 l/m 2 min 0 min 2,6 UV-I 543 W/m 10,3 km/h (2 Bft)
14.04.2013 14:06 19,2 C 20,1 C 65 % 1021,4 hPa 0,0 l/m 2 min 0 min 2,7 UV-I 559 W/m 15,4 km/h (3 Bft)
14.04.2013 14:08 19,2 C 20,1 C 65 % 1021,4 hPa 0,0 l/m 2 min 0 min 2,6 UV-I 526 W/m 15,4 km/h (3 Bft)
14.04.2013 14:10 19,3 C 20,1 C 66 % 1021,4 hPa 0,0 l/m 2 min 0 min 2,2 UV-I 441 W/m 10,3 km/h (2 Bft)
14.04.2013 14:12 19,4 C 20,1 C 65 % 1021,3 hPa 0,0 l/m 2 min 0 min 2,5 UV-I 483 W/m 18,0 km/h (3 Bft)
14.04.2013 14:14 19,4 C 20,1 C 65 % 1021,3 hPa 0,0 l/m 2 min 0 min 1,8 UV-I 468 W/m 15,4 km/h (3 Bft)
14.04.2013 14:16 19,6 C 20,1 C 65 % 1021,3 hPa 0,0 l/m 2 min 0 min 2,2 UV-I 413 W/m 18,0 km/h (3 Bft)
14.04.2013 14:18 19,6 C 20,1 C 65 % 1021,4 hPa 0,0 l/m 2 min 0 min 2,2 UV-I 420 W/m 18,0 km/h (3 Bft)
14.04.2013 14:20 19,7 C 20,1 C 64 % 1021,4 hPa 0,0 l/m 2 min 0 min 2,2 UV-I 441 W/m 12,9 km/h (3 Bft)
14.04.2013 14:22 19,7 C 20,1 C 63 % 1021,3 hPa 0,0 l/m 0 min 0 min 2,0 UV-I 399 W/m 15,4 km/h (3 Bft)
14.04.2013 14:24 19,8 C 20,1 C 64 % 1021,2 hPa 0,0 l/m 2 min 0 min 2,3 UV-I 504 W/m 12,9 km/h (3 Bft)
14.04.2013 14:26 19,8 C 20,7 C 65 % 1021,2 hPa 0,0 l/m 2 min 0 min 2,3 UV-I 483 W/m 10,3 km/h (2 Bft)
14.04.2013 14:28 19,9 C 20,7 C 65 % 1021,2 hPa 0,0 l/m 2 min 0 min 2,1 UV-I 438 W/m 10,3 km/h (2 Bft)
14.04.2013 14:30 19,9 C 20,1 C 64 % 1021,2 hPa 0,0 l/m 0 min 0 min 1,8 UV-I 338 W/m 18,0 km/h (3 Bft)
14.04.2013 14:32 19,9 C 20,1 C 63 % 1021,2 hPa 0,0 l/m 2 min 0 min 2,1 UV-I 417 W/m 12,9 km/h (3 Bft)
14.04.2013 14:34 20,0 C 20,1 C 63 % 1021,2 hPa 0,0 l/m 0 min 0 min 1,9 UV-I 376 W/m 10,3 km/h (2 Bft)
14.04.2013 14:36 20,0 C 20,1 C 63 % 1021,1 hPa 0,0 l/m 0 min 0 min 1,7 UV-I 346 W/m 18,0 km/h (3 Bft)
14.04.2013 14:38 20,1 C 20,1 C 63 % 1021,2 hPa 0,0 l/m 0 min 0 min 1,7 UV-I 336 W/m 10,3 km/h (2 Bft)
14.04.2013 14:40 20,1 C 20,1 C 63 % 1021,1 hPa 0,0 l/m 0 min 0 min 1,6 UV-I 320 W/m 12,9 km/h (3 Bft)
14.04.2013 14:42 20,2 C 20,7 C 63 % 1021,1 hPa 0,0 l/m 0 min 0 min 1,5 UV-I 306 W/m 12,9 km/h (3 Bft)
14.04.2013 14:44 20,2 C 20,7 C 63 % 1021,0 hPa 0,0 l/m 0 min 0 min 1,8 UV-I 378 W/m 10,3 km/h (2 Bft)
14.04.2013 14:46 20,2 C 21,2 C 62 % 1021,0 hPa 0,0 l/m 2 min 0 min 2,1 UV-I 462 W/m 10,3 km/h (2 Bft)
14.04.2013 14:48 20,3 C 21,2 C 61 % 1021,0 hPa 0,0 l/m 2 min 0 min 2,8 UV-I 640 W/m 15,4 km/h (3 Bft)
14.04.2013 14:50 20,3 C 21,2 C 62 % 1020,9 hPa 0,0 l/m 2 min 0 min 2,6 UV-I 582 W/m 7,7 km/h (2 Bft)
14.04.2013 14:52 20,4 C 21,2 C 62 % 1020,9 hPa 0,0 l/m 2 min 0 min 2,2 UV-I 497 W/m 10,3 km/h (2 Bft)
14.04.2013 14:54 20,6 C 20,7 C 62 % 1021,0 hPa 0,0 l/m 0 min 0 min 1,7 UV-I 299 W/m 10,3 km/h (2 Bft)
14.04.2013 14:56 20,6 C 20,7 C 59 % 1020,9 hPa 0,0 l/m 2 min 0 min 2,4 UV-I 543 W/m 10,3 km/h (2 Bft)
14.04.2013 14:58 20,7 C 20,7 C 60 % 1020,9 hPa 0,0 l/m 2 min 0 min 2,7 UV-I 621 W/m 12,9 km/h (3 Bft)
14.04.2013 15:00 20,7 C 20,7 C 60 % 1020,9 hPa 0,0 l/m 2 min 0 min 2,7 UV-I 610 W/m 15,4 km/h (3 Bft)
14.04.2013 15:02 20,8 C 21,2 C 60 % 1020,9 hPa 0,0 l/m 2 min 0 min 2,5 UV-I 541 W/m 12,9 km/h (3 Bft)
14.04.2013 15:06 20,9 C 20,7 C 59 % 1020,8 hPa 0,0 l/m 2 min 0 min 2,7 UV-I 619 W/m 18,0 km/h (3 Bft)
14.04.2013 15:08 21,0 C 21,2 C 60 % 1020,8 hPa 0,0 l/m 2 min 0 min 2,4 UV-I 522 W/m 10,3 km/h (2 Bft)
14.04.2013 15:10 21,1 C 21,2 C 60 % 1020,8 hPa 0,0 l/m 2 min 0 min 2,3 UV-I 499 W/m 7,7 km/h (2 Bft)
14.04.2013 15:12 21,2 C 20,7 C 58 % 1020,8 hPa 0,0 l/m 2 min 0 min 2,5 UV-I 584 W/m 18,0 km/h (3 Bft)
14.04.2013 15:14 21,2 C 20,7 C 58 % 1020,7 hPa 0,0 l/m 2 min 0 min 2,5 UV-I 615 W/m 12,9 km/h (3 Bft)
14.04.2013 15:16 21,3 C 20,7 C 58 % 1020,7 hPa 0,0 l/m 2 min 0 min 2,5 UV-I 643 W/m 12,9 km/h (3 Bft)
14.04.2013 15:18 21,3 C 20,7 C 57 % 1020,6 hPa 0,0 l/m 2 min 0 min 2,5 UV-I 591 W/m 12,9 km/h (3 Bft)
14.04.2013 15:20 21,4 C 21,2 C 58 % 1020,6 hPa 0,0 l/m 2 min 0 min 2,5 UV-I 596 W/m 5,1 km/h (1 Bft)
14.04.2013 15:22 21,4 C 21,2 C 58 % 1020,5 hPa 0,0 l/m 2 min 0 min 2,6 UV-I 666 W/m 10,3 km/h (2 Bft)
14.04.2013 15:24 21,6 C 21,2 C 58 % 1020,5 hPa 0,0 l/m 2 min 0 min 2,6 UV-I 631 W/m 18,0 km/h (3 Bft)
14.04.2013 15:26 21,7 C 21,2 C 58 % 1020,5 hPa 0,0 l/m 2 min 0 min 2,6 UV-I 633 W/m 12,9 km/h (3 Bft)
14.04.2013 15:28 21,8 C 21,2 C 58 % 1020,5 hPa 0,0 l/m 2 min 0 min 2,6 UV-I 629 W/m 10,3 km/h (2 Bft)
14.04.2013 15:30 21,8 C 21,2 C 58 % 1020,5 hPa 0,0 l/m 2 min 0 min 2,5 UV-I 599 W/m 18,0 km/h (3 Bft)
14.04.2013 15:32 21,8 C 21,2 C 58 % 1020,4 hPa 0,0 l/m 2 min 0 min 2,4 UV-I 570 W/m 23,2 km/h (4 Bft)
14.04.2013 15:34 21,9 C 20,7 C 57 % 1020,4 hPa 0,0 l/m 2 min 0 min 2,5 UV-I 633 W/m 18,0 km/h (3 Bft)
14.04.2013 15:36 21,9 C 21,2 C 56 % 1020,5 hPa 0,0 l/m 2 min 0 min 2,6 UV-I 661 W/m 18,0 km/h (3 Bft)
14.04.2013 15:38 21,9 C 20,7 C 56 % 1020,4 hPa 0,0 l/m 2 min 0 min 2,5 UV-I 638 W/m 20,6 km/h (4 Bft)
14.04.2013 15:40 21,8 C 21,2 C 56 % 1020,2 hPa 0,0 l/m 2 min 0 min 2,3 UV-I 552 W/m 18,0 km/h (3 Bft)
14.04.2013 15:42 21,8 C 21,2 C 56 % 1020,2 hPa 0,0 l/m 2 min 0 min 2,5 UV-I 654 W/m 23,2 km/h (4 Bft)
14.04.2013 15:44 21,8 C 21,2 C 56 % 1020,1 hPa 0,0 l/m 2 min 0 min 2,4 UV-I 629 W/m 18,0 km/h (3 Bft)
14.04.2013 15:46 21,8 C 21,2 C 56 % 1020,3 hPa 0,0 l/m 2 min 0 min 2,3 UV-I 610 W/m 23,2 km/h (4 Bft)
14.04.2013 15:48 21,8 C 21,2 C 58 % 1020,3 hPa 0,0 l/m 2 min 0 min 2,2 UV-I 578 W/m 18,0 km/h (3 Bft)
14.04.2013 15:50 21,9 C 21,2 C 57 % 1020,2 hPa 0,0 l/m 2 min 0 min 2,1 UV-I 555 W/m 25,7 km/h (4 Bft)
14.04.2013 15:52 21,9 C 21,2 C 56 % 1020,3 hPa 0,0 l/m 2 min 0 min 2,1 UV-I 548 W/m 28,3 km/h (4 Bft)
14.04.2013 15:54 21,9 C 21,2 C 56 % 1020,1 hPa 0,0 l/m 2 min 0 min 2,0 UV-I 504 W/m 12,9 km/h (3 Bft)
14.04.2013 15:56 21,8 C 21,2 C 55 % 1020,1 hPa 0,0 l/m 2 min 0 min 2,2 UV-I 592 W/m 20,6 km/h (4 Bft)
14.04.2013 15:58 21,8 C 21,2 C 56 % 1020,1 hPa 0,0 l/m 2 min 0 min 2,2 UV-I 617 W/m 18,0 km/h (3 Bft)
14.04.2013 16:00 21,8 C 21,2 C 57 % 1020,0 hPa 0,0 l/m 2 min 0 min 2,0 UV-I 550 W/m 15,4 km/h (3 Bft)
14.04.2013 16:02 21,9 C 21,8 C 56 % 1020,1 hPa 0,0 l/m 2 min 0 min 2,1 UV-I 626 W/m 20,6 km/h (4 Bft)
14.04.2013 16:04 21,9 C 21,8 C 56 % 1020,1 hPa 0,0 l/m 2 min 0 min 2,1 UV-I 612 W/m 18,0 km/h (3 Bft)
14.04.2013 16:06 22,1 C 22,3 C 56 % 1020,0 hPa 0,0 l/m 2 min 0 min 2,1 UV-I 619 W/m 18,0 km/h (3 Bft)
14.04.2013 16:08 22,2 C 22,3 C 55 % 1020,0 hPa 0,0 l/m 2 min 0 min 1,9 UV-I 543 W/m 23,2 km/h (4 Bft)
14.04.2013 16:10 22,2 C 22,3 C 55 % 1019,9 hPa 0,0 l/m 2 min 0 min 1,9 UV-I 587 W/m 15,4 km/h (3 Bft)
14.04.2013 16:12 22,3 C 23,4 C 55 % 1019,9 hPa 0,0 l/m 2 min 0 min 1,9 UV-I 601 W/m 23,2 km/h (4 Bft)
14.04.2013 16:14 22,3 C 24,0 C 55 % 1019,8 hPa 0,0 l/m 2 min 0 min 1,9 UV-I 559 W/m 25,7 km/h (4 Bft)
14.04.2013 16:16 22,3 C 24,6 C 55 % 1019,8 hPa 0,0 l/m 2 min 0 min 1,7 UV-I 524 W/m 23,2 km/h (4 Bft)
14.04.2013 16:18 22,4 C 25,1 C 55 % 1019,7 hPa 0,0 l/m 2 min 0 min 1,7 UV-I 538 W/m 18,0 km/h (3 Bft)
14.04.2013 16:20 22,4 C 24,6 C 55 % 1019,9 hPa 0,0 l/m 2 min 0 min 1,7 UV-I 510 W/m 20,6 km/h (4 Bft)
14.04.2013 16:22 22,4 C 24,6 C 56 % 1019,8 hPa 0,0 l/m 2 min 0 min 1,7 UV-I 520 W/m 15,4 km/h (3 Bft)
14.04.2013 16:24 22,5 C 24,6 C 56 % 1019,7 hPa 0,0 l/m 2 min 0 min 1,8 UV-I 575 W/m 18,0 km/h (3 Bft)
14.04.2013 16:26 22,5 C 24,0 C 55 % 1019,7 hPa 0,0 l/m 2 min 0 min 1,7 UV-I 550 W/m 12,9 km/h (3 Bft)
14.04.2013 16:28 22,6 C 24,0 C 55 % 1019,7 hPa 0,0 l/m 2 min 0 min 1,7 UV-I 559 W/m 23,2 km/h (4 Bft)
14.04.2013 16:30 22,5 C 24,6 C 56 % 1019,6 hPa 0,0 l/m 2 min 0 min 1,6 UV-I 536 W/m 23,2 km/h (4 Bft)
14.04.2013 16:32 22,6 C 24,6 C 56 % 1019,5 hPa 0,0 l/m 2 min 0 min 1,6 UV-I 529 W/m 15,4 km/h (3 Bft)
14.04.2013 16:34 22,6 C 24,0 C 57 % 1019,5 hPa 0,0 l/m 2 min 0 min 1,6 UV-I 541 W/m 10,3 km/h (2 Bft)
14.04.2013 16:36 22,6 C 23,4 C 55 % 1019,5 hPa 0,0 l/m 2 min 0 min 1,5 UV-I 526 W/m 15,4 km/h (3 Bft)
14.04.2013 16:38 22,7 C 22,9 C 56 % 1019,5 hPa 0,0 l/m 2 min 0 min 1,5 UV-I 506 W/m 20,6 km/h (4 Bft)
14.04.2013 16:40 22,7 C 22,9 C 55 % 1019,4 hPa 0,0 l/m 2 min 0 min 1,3 UV-I 436 W/m 18,0 km/h (3 Bft)
14.04.2013 16:42 22,7 C 22,3 C 56 % 1019,5 hPa 0,0 l/m 2 min 0 min 1,3 UV-I 455 W/m 20,6 km/h (4 Bft)
14.04.2013 16:44 22,7 C 22,9 C 58 % 1019,4 hPa 0,0 l/m 2 min 0 min 1,4 UV-I 475 W/m 10,3 km/h (2 Bft)
14.04.2013 16:46 22,8 C 22,9 C 57 % 1019,2 hPa 0,0 l/m 2 min 0 min 1,3 UV-I 510 W/m 23,2 km/h (4 Bft)
14.04.2013 16:48 22,8 C 22,9 C 57 % 1019,2 hPa 0,0 l/m 2 min 0 min 1,3 UV-I 504 W/m 18,0 km/h (3 Bft)
14.04.2013 16:50 22,8 C 22,9 C 57 % 1019,3 hPa 0,0 l/m 2 min 0 min 1,3 UV-I 506 W/m 20,6 km/h (4 Bft)
14.04.2013 16:52 22,9 C 22,9 C 57 % 1019,1 hPa 0,0 l/m 2 min 0 min 1,3 UV-I 504 W/m 23,2 km/h (4 Bft)
14.04.2013 16:54 22,9 C 22,9 C 57 % 1019,1 hPa 0,0 l/m 2 min 0 min 1,3 UV-I 513 W/m 23,2 km/h (4 Bft)
14.04.2013 16:56 22,9 C 22,9 C 57 % 1019,1 hPa 0,0 l/m 2 min 0 min 1,2 UV-I 494 W/m 20,6 km/h (4 Bft)
14.04.2013 16:58 22,9 C 22,3 C 57 % 1018,9 hPa 0,0 l/m 2 min 0 min 1,2 UV-I 520 W/m 18,0 km/h (3 Bft)
14.04.2013 17:00 22,9 C 22,3 C 57 % 1019,0 hPa 0,0 l/m 2 min 0 min 1,1 UV-I 473 W/m 28,3 km/h (4 Bft)
14.04.2013 17:02 22,9 C 22,3 C 58 % 1019,0 hPa 0,0 l/m 2 min 0 min 1,2 UV-I 471 W/m 15,4 km/h (3 Bft)
14.04.2013 17:04 22,9 C 22,3 C 57 % 1018,9 hPa 0,0 l/m 2 min 0 min 1,2 UV-I 512 W/m 28,3 km/h (4 Bft)
14.04.2013 17:06 22,8 C 22,9 C 58 % 1018,9 hPa 0,0 l/m 2 min 0 min 1,1 UV-I 485 W/m 18,0 km/h (3 Bft)
14.04.2013 17:08 22,9 C 22,9 C 58 % 1018,8 hPa 0,0 l/m 2 min 0 min 1,1 UV-I 496 W/m 18,0 km/h (3 Bft)
14.04.2013 17:10 22,9 C 22,3 C 58 % 1018,8 hPa 0,0 l/m 2 min 0 min 1,0 UV-I 476 W/m 25,7 km/h (4 Bft)
14.04.2013 17:12 22,9 C 22,3 C 59 % 1018,8 hPa 0,0 l/m 2 min 0 min 1,0 UV-I 443 W/m 23,2 km/h (4 Bft)
14.04.2013 17:14 22,9 C 22,3 C 57 % 1018,9 hPa 0,0 l/m 2 min 0 min 0,9 UV-I 443 W/m 20,6 km/h (4 Bft)
14.04.2013 17:16 22,9 C 22,3 C 59 % 1018,9 hPa 0,0 l/m 2 min 0 min 0,9 UV-I 450 W/m 12,9 km/h (3 Bft)
14.04.2013 17:18 23,0 C 22,3 C 58 % 1018,8 hPa 0,0 l/m 2 min 0 min 0,9 UV-I 420 W/m 23,2 km/h (4 Bft)
14.04.2013 17:20 23,1 C 22,3 C 58 % 1018,8 hPa 0,0 l/m 2 min 0 min 0,9 UV-I 434 W/m 25,7 km/h (4 Bft)
14.04.2013 17:22 23,0 C 22,3 C 57 % 1018,9 hPa 0,0 l/m 2 min 0 min 0,8 UV-I 425 W/m 36,0 km/h (5 Bft)
14.04.2013 17:24 23,0 C 22,3 C 57 % 1018,8 hPa 0,0 l/m 2 min 0 min 0,8 UV-I 443 W/m 36,0 km/h (5 Bft)
14.04.2013 17:26 22,9 C 21,8 C 58 % 1018,7 hPa 0,0 l/m 2 min 0 min 0,8 UV-I 452 W/m 36,0 km/h (5 Bft)
14.04.2013 17:28 22,9 C 22,3 C 58 % 1018,6 hPa 0,0 l/m 2 min 0 min 0,8 UV-I 455 W/m 28,3 km/h (4 Bft)
14.04.2013 17:30 22,9 C 22,3 C 58 % 1018,7 hPa 0,0 l/m 2 min 0 min 0,7 UV-I 429 W/m 33,5 km/h (5 Bft)
14.04.2013 17:32 22,9 C 22,3 C 58 % 1018,7 hPa 0,0 l/m 2 min 0 min 0,7 UV-I 473 W/m 20,6 km/h (4 Bft)
14.04.2013 17:34 23,0 C 22,3 C 58 % 1018,7 hPa 0,0 l/m 2 min 0 min 0,7 UV-I 471 W/m 30,9 km/h (5 Bft)
14.04.2013 17:36 23,0 C 22,3 C 58 % 1018,7 hPa 0,0 l/m 2 min 0 min 0,5 UV-I 424 W/m 20,6 km/h (4 Bft)
14.04.2013 17:38 23,0 C 22,3 C 57 % 1018,6 hPa 0,0 l/m 2 min 0 min 0,0 UV-I 378 W/m 28,3 km/h (4 Bft)
14.04.2013 17:40 23,0 C 22,3 C 57 % 1018,6 hPa 0,0 l/m 2 min 0 min 0,5 UV-I 352 W/m 33,5 km/h (5 Bft)
14.04.2013 17:42 22,9 C 21,8 C 57 % 1018,6 hPa 0,0 l/m 2 min 0 min 0,0 UV-I 257 W/m 28,3 km/h (4 Bft)
14.04.2013 17:44 22,8 C 21,8 C 57 % 1018,6 hPa 0,0 l/m 2 min 0 min 0,0 UV-I 334 W/m 28,3 km/h (4 Bft)
14.04.2013 17:46 22,8 C 21,8 C 58 % 1018,5 hPa 0,0 l/m 2 min 0 min 0,0 UV-I 316 W/m 25,7 km/h (4 Bft)
14.04.2013 17:48 22,8 C 21,8 C 58 % 1018,5 hPa 0,0 l/m 2 min 0 min 0,0 UV-I 345 W/m 23,2 km/h (4 Bft)
14.04.2013 17:50 22,7 C 21,8 C 58 % 1018,4 hPa 0,0 l/m 2 min 0 min 0,0 UV-I 410 W/m 15,4 km/h (3 Bft)
14.04.2013 17:52 22,7 C 21,8 C 58 % 1018,4 hPa 0,0 l/m 2 min 0 min 0,0 UV-I 367 W/m 20,6 km/h (4 Bft)
14.04.2013 17:54 22,7 C 21,8 C 58 % 1018,5 hPa 0,0 l/m 2 min 0 min 0,0 UV-I 304 W/m 30,9 km/h (5 Bft)
14.04.2013 17:56 22,7 C 22,3 C 58 % 1018,4 hPa 0,0 l/m 2 min 0 min 0,0 UV-I 350 W/m 30,9 km/h (5 Bft)
14.04.2013 17:58 22,8 C 22,3 C 59 % 1018,4 hPa 0,0 l/m 2 min 0 min 0,0 UV-I 383 W/m 28,3 km/h (4 Bft)
14.04.2013 18:00 22,8 C 22,3 C 58 % 1018,4 hPa 0,0 l/m 2 min 0 min 0,0 UV-I 418 W/m 23,2 km/h (4 Bft)
14.04.2013 18:02 22,8 C 22,3 C 58 % 1018,4 hPa 0,0 l/m 2 min 0 min 0,0 UV-I 411 W/m 20,6 km/h (4 Bft)
14.04.2013 18:06 22,9 C 21,8 C 57 % 1018,2 hPa 0,0 l/m 2 min 0 min 0,0 UV-I 311 W/m 36,0 km/h (5 Bft)
14.04.2013 18:08 22,9 C 22,3 C 57 % 1018,3 hPa 0,0 l/m 2 min 0 min 0,0 UV-I 323 W/m 36,0 km/h (5 Bft)
14.04.2013 18:10 22,8 C 21,8 C 57 % 1018,2 hPa 0,0 l/m 2 min 0 min 0,0 UV-I 288 W/m 28,3 km/h (4 Bft)
14.04.2013 18:12 22,8 C 21,8 C 57 % 1018,1 hPa 0,0 l/m 2 min 0 min 0,0 UV-I 225 W/m 30,9 km/h (5 Bft)
14.04.2013 18:15 22,8 C 21,8 C 58 % 1018,2 hPa 0,0 l/m 2 min 0 min 0,0 UV-I 264 W/m 30,9 km/h (5 Bft)
14.04.2013 18:20 22,8 C 21,8 C 58 % 1018,0 hPa 0,0 l/m 2 min 0 min 0,0 UV-I 246 W/m 23,2 km/h (4 Bft)
14.04.2013 18:25 22,8 C 21,2 C 58 % 1018,1 hPa 0,0 l/m 2 min 0 min 0,0 UV-I 207 W/m 25,7 km/h (4 Bft)
14.04.2013 18:30 22,8 C 21,2 C 58 % 1018,0 hPa 0,0 l/m 2 min 0 min 0,0 UV-I 167 W/m 25,7 km/h (4 Bft)
14.04.2013 18:35 22,7 C 21,2 C 58 % 1017,9 hPa 0,0 l/m 0 min 0 min 0,0 UV-I 137 W/m 28,3 km/h (4 Bft)
14.04.2013 18:44 22,5 C 20,1 C 59 % 1017,9 hPa 0,0 l/m 0 min 0 min 0,0 UV-I 91 W/m 10,3 km/h (2 Bft)
14.04.2013 18:46 22,4 C 20,1 C 59 % 1017,9 hPa 0,0 l/m 0 min 0 min 0,0 UV-I 90 W/m 23,2 km/h (4 Bft)
14.04.2013 18:48 22,4 C 20,1 C 59 % 1017,9 hPa 0,0 l/m 0 min 0 min 0,0 UV-I 84 W/m 18,0 km/h (3 Bft)
14.04.2013 18:50 22,3 C 20,1 C 60 % 1017,8 hPa 0,0 l/m 0 min 0 min 0,0 UV-I 90 W/m 23,2 km/h (4 Bft)
14.04.2013 18:52 22,3 C 20,1 C 60 % 1017,9 hPa 0,0 l/m 0 min 0 min 0,0 UV-I 90 W/m 15,4 km/h (3 Bft)
14.04.2013 18:54 22,2 C 20,1 C 60 % 1017,8 hPa 0,0 l/m 0 min 0 min 0,0 UV-I 91 W/m 18,0 km/h (3 Bft)
14.04.2013 18:56 22,2 C 20,1 C 60 % 1017,9 hPa 0,0 l/m 0 min 0 min 0,0 UV-I 86 W/m 20,6 km/h (4 Bft)
14.04.2013 18:58 22,2 C 20,1 C 60 % 1017,8 hPa 0,0 l/m 0 min 0 min 0,0 UV-I 79 W/m 20,6 km/h (4 Bft)
14.04.2013 19:00 22,2 C 20,1 C 60 % 1017,8 hPa 0,0 l/m 0 min 0 min 0,0 UV-I 81 W/m 12,9 km/h (3 Bft)
14.04.2013 19:02 22,1 C 20,1 C 60 % 1017,8 hPa 0,0 l/m 0 min 0 min 0,0 UV-I 90 W/m 7,7 km/h (2 Bft)
14.04.2013 19:04 22,1 C 20,1 C 60 % 1017,8 hPa 0,0 l/m 0 min 0 min 0,0 UV-I 90 W/m 15,4 km/h (3 Bft)
14.04.2013 19:06 22,1 C 20,1 C 61 % 1017,8 hPa 0,0 l/m 0 min 0 min 0,0 UV-I 81 W/m 12,9 km/h (3 Bft)
14.04.2013 19:08 22,1 C 20,1 C 61 % 1017,8 hPa 0,0 l/m 0 min 0 min 0,0 UV-I 79 W/m 18,0 km/h (3 Bft)
14.04.2013 19:10 22,0 C 20,1 C 61 % 1017,7 hPa 0,0 l/m 0 min 0 min 0,0 UV-I 76 W/m 18,0 km/h (3 Bft)
14.04.2013 19:12 21,9 C 19,6 C 61 % 1017,7 hPa 0,0 l/m 0 min 0 min 0,0 UV-I 77 W/m 18,0 km/h (3 Bft)
14.04.2013 19:14 21,9 C 19,6 C 61 % 1017,7 hPa 0,0 l/m 0 min 0 min 0,0 UV-I 84 W/m 23,2 km/h (4 Bft)
14.04.2013 19:16 21,9 C 19,6 C 61 % 1017,7 hPa 0,0 l/m 0 min 0 min 0,0 UV-I 69 W/m 18,0 km/h (3 Bft)
14.04.2013 19:18 21,8 C 19,6 C 61 % 1017,8 hPa 0,0 l/m 0 min 0 min 0,0 UV-I 62 W/m 20,6 km/h (4 Bft)
14.04.2013 19:20 21,8 C 19,6 C 61 % 1017,7 hPa 0,0 l/m 0 min 0 min 0,0 UV-I 60 W/m 12,9 km/h (3 Bft)
14.04.2013 19:22 21,8 C 19,6 C 61 % 1017,6 hPa 0,0 l/m 0 min 0 min 0,0 UV-I 60 W/m 12,9 km/h (3 Bft)
14.04.2013 19:24 21,8 C 19,6 C 61 % 1017,7 hPa 0,0 l/m 0 min 0 min 0,0 UV-I 54 W/m 10,3 km/h (2 Bft)
14.04.2013 19:26 21,8 C 19,6 C 61 % 1017,7 hPa 0,0 l/m 0 min 0 min 0,0 UV-I 53 W/m 20,6 km/h (4 Bft)
14.04.2013 19:28 21,7 C 19,6 C 61 % 1017,7 hPa 0,0 l/m 0 min 0 min 0,0 UV-I 49 W/m 18,0 km/h (3 Bft)
14.04.2013 19:30 21,7 C 19,6 C 61 % 1017,6 hPa 0,0 l/m 0 min 0 min 0,0 UV-I 47 W/m 20,6 km/h (4 Bft)
14.04.2013 19:32 21,7 C 19,6 C 62 % 1017,5 hPa 0,0 l/m 0 min 0 min 0,0 UV-I 47 W/m 18,0 km/h (3 Bft)
14.04.2013 19:34 21,7 C 19,6 C 62 % 1017,5 hPa 0,0 l/m 0 min 0 min 0,0 UV-I 44 W/m 15,4 km/h (3 Bft)
14.04.2013 19:36 21,6 C 19,0 C 62 % 1017,5 hPa 0,0 l/m 0 min 0 min 0,0 UV-I 42 W/m 10,3 km/h (2 Bft)
14.04.2013 19:38 21,6 C 19,0 C 62 % 1017,5 hPa 0,0 l/m 0 min 0 min 0,0 UV-I 40 W/m 10,3 km/h (2 Bft)
14.04.2013 19:40 21,6 C 19,0 C 62 % 1017,5 hPa 0,0 l/m 0 min 0 min 0,0 UV-I 39 W/m 20,6 km/h (4 Bft)
14.04.2013 19:42 21,5 C 19,0 C 62 % 1017,5 hPa 0,0 l/m 0 min 0 min 0,0 UV-I 39 W/m 15,4 km/h (3 Bft)
14.04.2013 19:44 21,5 C 19,0 C 62 % 1017,5 hPa 0,0 l/m 0 min 0 min 0,0 UV-I 35 W/m 18,0 km/h (3 Bft)
14.04.2013 19:46 21,4 C 19,0 C 62 % 1017,6 hPa 0,0 l/m 0 min 0 min 0,0 UV-I 33 W/m 12,9 km/h (3 Bft)
14.04.2013 19:48 21,4 C 19,0 C 63 % 1017,6 hPa 0,0 l/m 0 min 0 min 0,0 UV-I 32 W/m 18,0 km/h (3 Bft)
14.04.2013 19:50 21,3 C 19,0 C 63 % 1017,5 hPa 0,0 l/m 0 min 0 min 0,0 UV-I 30 W/m 12,9 km/h (3 Bft)
14.04.2013 19:52 21,3 C 19,0 C 63 % 1017,5 hPa 0,0 l/m 0 min 0 min 0,0 UV-I 28 W/m 15,4 km/h (3 Bft)
14.04.2013 19:54 21,3 C 18,4 C 63 % 1017,5 hPa 0,0 l/m 0 min 0 min 0,0 UV-I 26 W/m 15,4 km/h (3 Bft)
14.04.2013 19:56 21,2 C 18,4 C 63 % 1017,6 hPa 0,0 l/m 0 min 0 min 0,0 UV-I 26 W/m 15,4 km/h (3 Bft)
14.04.2013 19:58 21,2 C 18,4 C 63 % 1017,6 hPa 0,0 l/m 0 min 0 min 0,0 UV-I 25 W/m 18,0 km/h (3 Bft)
14.04.2013 20:00 21,2 C 18,4 C 63 % 1017,7 hPa 0,0 l/m 0 min 0 min 0,0 UV-I 23 W/m 10,3 km/h (2 Bft)
14.04.2013 20:02 21,1 C 18,4 C 64 % 1017,6 hPa 0,0 l/m 0 min 0 min 0,0 UV-I 21 W/m 7,7 km/h (2 Bft)
14.04.2013 20:04 21,1 C 17,9 C 64 % 1017,6 hPa 0,0 l/m 0 min 0 min 0,0 UV-I 19 W/m 12,9 km/h (3 Bft)
14.04.2013 20:06 21,1 C 17,9 C 63 % 1017,5 hPa 0,0 l/m 0 min 0 min 0,0 UV-I 18 W/m 20,6 km/h (4 Bft)
14.04.2013 20:08 21,0 C 17,9 C 63 % 1017,5 hPa 0,0 l/m 0 min 0 min 0,0 UV-I 18 W/m 18,0 km/h (3 Bft)
14.04.2013 20:10 20,9 C 17,9 C 62 % 1017,6 hPa 0,0 l/m 0 min 0 min 0,0 UV-I 16 W/m 7,7 km/h (2 Bft)
14.04.2013 20:12 20,9 C 17,9 C 62 % 1017,7 hPa 0,0 l/m 0 min 0 min 0,0 UV-I 14 W/m 18,0 km/h (3 Bft)
14.04.2013 20:14 20,9 C 17,9 C 61 % 1017,7 hPa 0,0 l/m 0 min 0 min 0,0 UV-I 12 W/m 12,9 km/h (3 Bft)
14.04.2013 20:16 20,8 C 17,9 C 61 % 1017,6 hPa 0,0 l/m 0 min 0 min 0,0 UV-I 11 W/m 10,3 km/h (2 Bft)
14.04.2013 20:18 20,8 C 17,9 C 60 % 1017,7 hPa 0,0 l/m 0 min 0 min 0,0 UV-I 11 W/m 15,4 km/h (3 Bft)
14.04.2013 20:20 20,8 C 17,9 C 60 % 1017,6 hPa 0,0 l/m 0 min 0 min 0,0 UV-I 9 W/m 10,3 km/h (2 Bft)
14.04.2013 20:22 20,8 C 17,9 C 60 % 1017,7 hPa 0,0 l/m 0 min 0 min 0,0 UV-I 7 W/m 15,4 km/h (3 Bft)
14.04.2013 20:24 20,7 C 17,9 C 60 % 1017,7 hPa 0,0 l/m 0 min 0 min 0,0 UV-I 5 W/m 10,3 km/h (2 Bft)
14.04.2013 20:26 20,7 C 17,9 C 59 % 1017,7 hPa 0,0 l/m 0 min 0 min 0,0 UV-I 5 W/m 15,4 km/h (3 Bft)
14.04.2013 20:28 20,7 C 18,4 C 59 % 1017,7 hPa 0,0 l/m 0 min 0 min 0,0 UV-I 0 W/m 12,9 km/h (3 Bft)
14.04.2013 20:30 20,7 C 17,9 C 59 % 1017,7 hPa 0,0 l/m 0 min 0 min 0,0 UV-I 0 W/m 7,7 km/h (2 Bft)
14.04.2013 20:32 20,7 C 17,9 C 59 % 1017,7 hPa 0,0 l/m 0 min 0 min 0,0 UV-I 5 W/m 12,9 km/h (3 Bft)
14.04.2013 20:34 20,7 C 17,9 C 59 % 1017,7 hPa 0,0 l/m 0 min 0 min 0,0 UV-I 0 W/m 12,9 km/h (3 Bft)
14.04.2013 20:36 20,7 C 18,4 C 59 % 1017,7 hPa 0,0 l/m 0 min 0 min 0,0 UV-I 0 W/m 18,0 km/h (3 Bft)
14.04.2013 20:38 20,7 C 17,9 C 59 % 1017,7 hPa 0,0 l/m 0 min 0 min 0,0 UV-I 0 W/m 23,2 km/h (4 Bft)
14.04.2013 20:40 20,7 C 18,4 C 59 % 1017,7 hPa 0,0 l/m 0 min 0 min 0,0 UV-I 0 W/m 12,9 km/h (3 Bft)
14.04.2013 20:42 20,7 C 17,9 C 59 % 1017,7 hPa 0,0 l/m 0 min 0 min 0,0 UV-I 0 W/m 15,4 km/h (3 Bft)
14.04.2013 20:44 20,7 C 17,9 C 59 % 1017,7 hPa 0,0 l/m 0 min 0 min 0,0 UV-I 0 W/m 7,7 km/h (2 Bft)
14.04.2013 20:46 20,7 C 17,9 C 59 % 1017,8 hPa 0,0 l/m 0 min 0 min 0,0 UV-I 0 W/m 18,0 km/h (3 Bft)
14.04.2013 20:48 20,6 C 17,9 C 59 % 1017,8 hPa 0,0 l/m 0 min 0 min 0,0 UV-I 0 W/m 2,6 km/h (1 Bft)
14.04.2013 20:50 20,6 C 17,9 C 59 % 1017,8 hPa 0,0 l/m 0 min 0 min 0,0 UV-I 0 W/m 7,7 km/h (2 Bft)
14.04.2013 20:52 20,6 C 17,9 C 59 % 1017,8 hPa 0,0 l/m 0 min 0 min 0,0 UV-I 0 W/m 12,9 km/h (3 Bft)
14.04.2013 20:54 20,6 C 17,9 C 59 % 1017,8 hPa 0,0 l/m 0 min 0 min 0,0 UV-I 0 W/m 5,1 km/h (1 Bft)
14.04.2013 20:56 20,5 C 17,3 C 59 % 1017,8 hPa 0,0 l/m 0 min 0 min 0,0 UV-I 0 W/m 15,4 km/h (3 Bft)
14.04.2013 20:58 20,5 C 17,3 C 59 % 1017,9 hPa 0,0 l/m 0 min 0 min 0,0 UV-I 0 W/m 2,6 km/h (1 Bft)
14.04.2013 21:00 20,4 C 17,3 C 59 % 1017,9 hPa 0,0 l/m 0 min 0 min 0,0 UV-I 0 W/m 10,3 km/h (2 Bft)
14.04.2013 21:02 20,4 C 16,8 C 59 % 1017,9 hPa 0,0 l/m 0 min 0 min 0,0 UV-I 0 W/m 10,3 km/h (2 Bft)
14.04.2013 21:04 20,4 C 16,8 C 59 % 1017,9 hPa 0,0 l/m 0 min 0 min 0,0 UV-I 0 W/m 7,7 km/h (2 Bft)
14.04.2013 21:06 20,3 C 16,8 C 60 % 1017,9 hPa 0,0 l/m 0 min 0 min 0,0 UV-I 0 W/m 0,0 km/h (0 Bft)
14.04.2013 21:08 20,3 C 16,2 C 60 % 1017,9 hPa 0,0 l/m 0 min 0 min 0,0 UV-I 0 W/m 0,0 km/h (0 Bft)
14.04.2013 21:10 20,3 C 16,2 C 60 % 1018,0 hPa 0,0 l/m 0 min 0 min 0,0 UV-I 0 W/m 2,6 km/h (1 Bft)
14.04.2013 21:12 20,2 C 16,2 C 60 % 1018,0 hPa 0,0 l/m 0 min 0 min 0,0 UV-I 0 W/m 0,0 km/h (0 Bft)
14.04.2013 21:14 20,2 C 16,2 C 60 % 1018,0 hPa 0,0 l/m 0 min 0 min 0,0 UV-I 0 W/m 12,9 km/h (3 Bft)
14.04.2013 21:16 20,1 C 16,2 C 60 % 1018,0 hPa 0,0 l/m 0 min 0 min 0,0 UV-I 0 W/m 12,9 km/h (3 Bft)
14.04.2013 21:18 20,1 C 16,2 C 61 % 1018,0 hPa 0,0 l/m 0 min 0 min 0,0 UV-I 0 W/m 7,7 km/h (2 Bft)
14.04.2013 21:20 20,0 C 16,2 C 61 % 1017,9 hPa 0,0 l/m 0 min 0 min 0,0 UV-I 0 W/m 7,7 km/h (2 Bft)
14.04.2013 21:22 19,9 C 16,2 C 61 % 1017,9 hPa 0,0 l/m 0 min 0 min 0,0 UV-I 0 W/m 7,7 km/h (2 Bft)
14.04.2013 21:24 19,9 C 15,7 C 61 % 1017,9 hPa 0,0 l/m 0 min 0 min 0,0 UV-I 0 W/m 12,9 km/h (3 Bft)
14.04.2013 21:26 19,8 C 15,7 C 61 % 1017,9 hPa 0,0 l/m 0 min 0 min 0,0 UV-I 0 W/m 10,3 km/h (2 Bft)
14.04.2013 21:28 19,8 C 15,7 C 62 % 1017,9 hPa 0,0 l/m 0 min 0 min 0,0 UV-I 0 W/m 10,3 km/h (2 Bft)
14.04.2013 21:30 19,7 C 15,7 C 62 % 1018,0 hPa 0,0 l/m 0 min 0 min 0,0 UV-I 0 W/m 7,7 km/h (2 Bft)
14.04.2013 21:32 19,7 C 15,7 C 62 % 1018,0 hPa 0,0 l/m 0 min 0 min 0,0 UV-I 0 W/m 10,3 km/h (2 Bft)
14.04.2013 21:34 19,6 C 15,7 C 62 % 1018,0 hPa 0,0 l/m 0 min 0 min 0,0 UV-I 0 W/m 0,0 km/h (0 Bft)
14.04.2013 21:36 19,6 C 15,7 C 62 % 1018,0 hPa 0,0 l/m 0 min 0 min 0,0 UV-I 0 W/m 7,7 km/h (2 Bft)
14.04.2013 21:38 19,5 C 15,7 C 62 % 1018,0 hPa 0,0 l/m 0 min 0 min 0,0 UV-I 0 W/m 7,7 km/h (2 Bft)
14.04.2013 21:40 19,4 C 15,7 C 62 % 1017,9 hPa 0,0 l/m 0 min 0 min 0,0 UV-I 0 W/m 10,3 km/h (2 Bft)
14.04.2013 21:42 19,3 C 15,7 C 63 % 1018,0 hPa 0,0 l/m 0 min 0 min 0,0 UV-I 0 W/m 7,7 km/h (2 Bft)
14.04.2013 21:44 19,3 C 15,7 C 63 % 1017,9 hPa 0,0 l/m 0 min 0 min 0,0 UV-I 0 W/m 7,7 km/h (2 Bft)
14.04.2013 21:46 19,2 C 15,7 C 63 % 1018,0 hPa 0,0 l/m 0 min 0 min 0,0 UV-I 0 W/m 10,3 km/h (2 Bft)
14.04.2013 21:48 19,2 C 15,7 C 63 % 1018,0 hPa 0,0 l/m 0 min 0 min 0,0 UV-I 0 W/m 5,1 km/h (1 Bft)
14.04.2013 21:50 19,1 C 15,1 C 63 % 1018,0 hPa 0,0 l/m 0 min 0 min 0,0 UV-I 0 W/m 2,6 km/h (1 Bft)
14.04.2013 21:52 19,1 C 15,1 C 63 % 1018,0 hPa 0,0 l/m 0 min 0 min 0,0 UV-I 0 W/m 2,6 km/h (1 Bft)
14.04.2013 21:54 19,0 C 15,1 C 63 % 1017,9 hPa 0,0 l/m 0 min 0 min 0,0 UV-I 0 W/m 2,6 km/h (1 Bft)
14.04.2013 21:56 18,9 C 15,1 C 63 % 1017,9 hPa 0,0 l/m 0 min 0 min 0,0 UV-I 0 W/m 0,0 km/h (0 Bft)
14.04.2013 21:58 18,9 C 15,1 C 63 % 1017,9 hPa 0,0 l/m 0 min 0 min 0,0 UV-I 0 W/m 5,1 km/h (1 Bft)
14.04.2013 22:00 18,8 C 15,1 C 64 % 1017,9 hPa 0,0 l/m 0 min 0 min 0,0 UV-I 0 W/m 10,3 km/h (2 Bft)
14.04.2013 22:02 18,8 C 15,1 C 64 % 1017,9 hPa 0,0 l/m 0 min 0 min 0,0 UV-I 0 W/m 12,9 km/h (3 Bft)
14.04.2013 22:04 18,8 C 15,1 C 64 % 1017,9 hPa 0,0 l/m 0 min 0 min 0,0 UV-I 0 W/m 7,7 km/h (2 Bft)
14.04.2013 22:06 18,7 C 15,1 C 64 % 1018,0 hPa 0,0 l/m 0 min 0 min 0,0 UV-I 0 W/m 7,7 km/h (2 Bft)
14.04.2013 22:08 18,7 C 14,6 C 64 % 1018,0 hPa 0,0 l/m 0 min 0 min 0,0 UV-I 0 W/m 7,7 km/h (2 Bft)
14.04.2013 22:10 18,7 C 14,6 C 64 % 1018,0 hPa 0,0 l/m 0 min 0 min 0,0 UV-I 0 W/m 0,0 km/h (0 Bft)
14.04.2013 22:12 18,7 C 14,6 C 64 % 1018,0 hPa 0,0 l/m 0 min 0 min 0,0 UV-I 0 W/m 0,0 km/h (0 Bft)
14.04.2013 22:14 18,6 C 14,6 C 64 % 1018,0 hPa 0,0 l/m 0 min 0 min 0,0 UV-I 0 W/m 0,0 km/h (0 Bft)
14.04.2013 22:16 18,6 C 14,6 C 64 % 1018,0 hPa 0,0 l/m 0 min 0 min 0,0 UV-I 0 W/m 5,1 km/h (1 Bft)
14.04.2013 22:18 18,6 C 14,6 C 65 % 1018,0 hPa 0,0 l/m 0 min 0 min 0,0 UV-I 0 W/m 10,3 km/h (2 Bft)
14.04.2013 22:20 18,5 C 14,6 C 65 % 1018,0 hPa 0,0 l/m 0 min 0 min 0,0 UV-I 0 W/m 5,1 km/h (1 Bft)
14.04.2013 22:22 18,4 C 14,6 C 65 % 1018,0 hPa 0,0 l/m 0 min 0 min 0,0 UV-I 0 W/m 7,7 km/h (2 Bft)
14.04.2013 22:24 18,4 C 14,6 C 65 % 1018,1 hPa 0,0 l/m 0 min 0 min 0,0 UV-I 0 W/m 5,1 km/h (1 Bft)
14.04.2013 22:26 18,4 C 14,6 C 65 % 1018,0 hPa 0,0 l/m 0 min 0 min 0,0 UV-I 0 W/m 7,7 km/h (2 Bft)
14.04.2013 22:28 18,3 C 14,6 C 66 % 1018,0 hPa 0,0 l/m 0 min 0 min 0,0 UV-I 0 W/m 7,7 km/h (2 Bft)
14.04.2013 22:30 18,3 C 14,6 C 66 % 1017,9 hPa 0,0 l/m 0 min 0 min 0,0 UV-I 0 W/m 7,7 km/h (2 Bft)
14.04.2013 22:32 18,3 C 14,6 C 66 % 1017,9 hPa 0,0 l/m 0 min 0 min 0,0 UV-I 0 W/m 5,1 km/h (1 Bft)
14.04.2013 22:34 18,2 C 14,6 C 66 % 1017,9 hPa 0,0 l/m 0 min 0 min 0,0 UV-I 0 W/m 7,7 km/h (2 Bft)
14.04.2013 22:36 18,2 C 14,6 C 66 % 1017,9 hPa 0,0 l/m 0 min 0 min 0,0 UV-I 0 W/m 0,0 km/h (0 Bft)
14.04.2013 22:38 18,2 C 14,6 C 66 % 1017,9 hPa 0,0 l/m 0 min 0 min 0,0 UV-I 0 W/m 2,6 km/h (1 Bft)
14.04.2013 22:40 18,1 C 14,6 C 67 % 1017,9 hPa 0,0 l/m 0 min 0 min 0,0 UV-I 0 W/m 10,3 km/h (2 Bft)
14.04.2013 22:42 18,1 C 15,1 C 67 % 1017,9 hPa 0,0 l/m 0 min 0 min 0,0 UV-I 0 W/m 7,7 km/h (2 Bft)
14.04.2013 22:44 18,1 C 15,1 C 68 % 1017,9 hPa 0,0 l/m 0 min 0 min 0,0 UV-I 0 W/m 7,7 km/h (2 Bft)
14.04.2013 22:46 18,0 C 15,1 C 68 % 1017,9 hPa 0,0 l/m 0 min 0 min 0,0 UV-I 0 W/m 7,7 km/h (2 Bft)
14.04.2013 22:48 17,9 C 14,6 C 68 % 1017,9 hPa 0,0 l/m 0 min 0 min 0,0 UV-I 0 W/m 12,9 km/h (3 Bft)
14.04.2013 22:50 17,9 C 15,1 C 68 % 1017,9 hPa 0,0 l/m 0 min 0 min 0,0 UV-I 0 W/m 10,3 km/h (2 Bft)
14.04.2013 22:52 17,9 C 14,6 C 68 % 1017,9 hPa 0,0 l/m 0 min 0 min 0,0 UV-I 0 W/m 7,7 km/h (2 Bft)
14.04.2013 22:54 17,8 C 14,6 C 69 % 1017,9 hPa 0,0 l/m 0 min 0 min 0,0 UV-I 0 W/m 7,7 km/h (2 Bft)
14.04.2013 22:56 17,8 C 14,6 C 69 % 1017,9 hPa 0,0 l/m 0 min 0 min 0,0 UV-I 0 W/m 7,7 km/h (2 Bft)
14.04.2013 22:58 17,8 C 14,6 C 69 % 1017,9 hPa 0,0 l/m 0 min 0 min 0,0 UV-I 0 W/m 12,9 km/h (3 Bft)
14.04.2013 23:00 17,7 C 14,6 C 70 % 1018,0 hPa 0,0 l/m 0 min 0 min 0,0 UV-I 0 W/m 12,9 km/h (3 Bft)
14.04.2013 23:02 17,7 C 14,6 C 70 % 1017,9 hPa 0,0 l/m 0 min 0 min 0,0 UV-I 0 W/m 5,1 km/h (1 Bft)
14.04.2013 23:04 17,7 C 14,6 C 70 % 1017,9 hPa 0,0 l/m 0 min 0 min 0,0 UV-I 0 W/m 0,0 km/h (0 Bft)
14.04.2013 23:06 17,6 C 14,0 C 70 % 1017,9 hPa 0,0 l/m 0 min 0 min 0,0 UV-I 0 W/m 2,6 km/h (1 Bft)
14.04.2013 23:08 17,6 C 14,0 C 70 % 1017,9 hPa 0,0 l/m 0 min 0 min 0,0 UV-I 0 W/m 2,6 km/h (1 Bft)
14.04.2013 23:10 17,5 C 14,0 C 70 % 1017,9 hPa 0,0 l/m 0 min 0 min 0,0 UV-I 0 W/m 2,6 km/h (1 Bft)
14.04.2013 23:12 17,5 C 14,0 C 70 % 1017,9 hPa 0,0 l/m 0 min 0 min 0,0 UV-I 0 W/m 2,6 km/h (1 Bft)
14.04.2013 23:14 17,4 C 14,0 C 71 % 1017,9 hPa 0,0 l/m 0 min 0 min 0,0 UV-I 0 W/m 10,3 km/h (2 Bft)
14.04.2013 23:16 17,4 C 14,0 C 71 % 1017,9 hPa 0,0 l/m 0 min 0 min 0,0 UV-I 0 W/m 5,1 km/h (1 Bft)
14.04.2013 23:18 17,3 C 14,0 C 71 % 1017,8 hPa 0,0 l/m 0 min 0 min 0,0 UV-I 0 W/m 7,7 km/h (2 Bft)
14.04.2013 23:20 17,3 C 14,0 C 71 % 1017,9 hPa 0,0 l/m 0 min 0 min 0,0 UV-I 0 W/m 0,0 km/h (0 Bft)
14.04.2013 23:22 17,2 C 14,0 C 71 % 1017,9 hPa 0,0 l/m 0 min 0 min 0,0 UV-I 0 W/m 7,7 km/h (2 Bft)
14.04.2013 23:24 17,2 C 13,4 C 71 % 1017,9 hPa 0,0 l/m 0 min 0 min 0,0 UV-I 0 W/m 7,7 km/h (2 Bft)
14.04.2013 23:26 17,2 C 13,4 C 71 % 1017,8 hPa 0,0 l/m 0 min 0 min 0,0 UV-I 0 W/m 10,3 km/h (2 Bft)
14.04.2013 23:28 17,1 C 13,4 C 71 % 1017,9 hPa 0,0 l/m 0 min 0 min 0,0 UV-I 0 W/m 2,6 km/h (1 Bft)
14.04.2013 23:30 17,1 C 13,4 C 72 % 1017,9 hPa 0,0 l/m 0 min 0 min 0,0 UV-I 0 W/m 0,0 km/h (0 Bft)
14.04.2013 23:32 17,0 C 13,4 C 72 % 1017,8 hPa 0,0 l/m 0 min 0 min 0,0 UV-I 0 W/m 5,1 km/h (1 Bft)
14.04.2013 23:34 16,9 C 13,4 C 72 % 1017,8 hPa 0,0 l/m 0 min 0 min 0,0 UV-I 0 W/m 7,7 km/h (2 Bft)
14.04.2013 23:36 16,9 C 13,4 C 72 % 1017,8 hPa 0,0 l/m 0 min 0 min 0,0 UV-I 0 W/m 7,7 km/h (2 Bft)
14.04.2013 23:38 16,8 C 13,4 C 73 % 1017,8 hPa 0,0 l/m 0 min 0 min 0,0 UV-I 0 W/m 7,7 km/h (2 Bft)
14.04.2013 23:40 16,8 C 13,4 C 73 % 1017,8 hPa 0,0 l/m 0 min 0 min 0,0 UV-I 0 W/m 10,3 km/h (2 Bft)
14.04.2013 23:42 16,7 C 13,4 C 73 % 1017,8 hPa 0,0 l/m 0 min 0 min 0,0 UV-I 0 W/m 2,6 km/h (1 Bft)
14.04.2013 23:44 16,7 C 13,4 C 73 % 1017,8 hPa 0,0 l/m 0 min 0 min 0,0 UV-I 0 W/m 2,6 km/h (1 Bft)
14.04.2013 23:46 16,7 C 13,4 C 73 % 1017,8 hPa 0,0 l/m 0 min 0 min 0,0 UV-I 0 W/m 7,7 km/h (2 Bft)
14.04.2013 23:48 16,6 C 13,4 C 73 % 1017,8 hPa 0,0 l/m 0 min 0 min 0,0 UV-I 0 W/m 7,7 km/h (2 Bft)
14.04.2013 23:50 16,6 C 13,4 C 73 % 1017,8 hPa 0,0 l/m 0 min 0 min 0,0 UV-I 0 W/m 10,3 km/h (2 Bft)
14.04.2013 23:52 16,5 C 13,4 C 73 % 1017,8 hPa 0,0 l/m 0 min 0 min 0,0 UV-I 0 W/m 10,3 km/h (2 Bft)
14.04.2013 23:54 16,4 C 13,4 C 73 % 1017,8 hPa 0,0 l/m 0 min 0 min 0,0 UV-I 0 W/m 10,3 km/h (2 Bft)
14.04.2013 23:56 16,4 C 13,4 C 74 % 1017,8 hPa 0,0 l/m 0 min 0 min 0,0 UV-I 0 W/m 12,9 km/h (3 Bft)
14.04.2013 23:58 16,4 C 13,4 C 74 % 1017,8 hPa 0,0 l/m 0 min 0 min 0,0 UV-I 0 W/m 12,9 km/h (3 Bft)
_ Min-Zeit 02:24 01:14 15:56 19:32 - - - - - 00:08
Minimum _ 11,7 C 9,6 C 55 % 1017,5 hPa - - - - - 0,0 km/h (0 Bft)
_ Max-Zeit 17:20 16:18 02:12 11:38 00:00 13:30 00:54 14:48 15:22 17:22
Maximum _ 23,1 C 25,1 C 87 % 1021,7 hPa 0,0 l/m 2 min 2 min 2,8 UV-I 666 W/m 36,0 km/h
SO (5 Bft)
Durchschnitt _ 16,5 C 15,3 C 73 % 1019,8 hPa #0,0 l/m #4:04 h #20 min. 1,6 UV-I 242 W/m 11,1 km/h (2 Bft)
© 2013 W. Hausmann